| time (UTC) | temp F | wind direction | speed MPH | gust MPH | rain 1hr in | rain 24hr in | rain mn in | humidity % | barometer mb |
| 20260504025827 | 55 | 173 | 2.0 | 4.0 | 0.00 | 0.00 | 0.00 | 61 | 1018.7 |
| 20260504025748 | 55 | 183 | 2.0 | 4.0 | 0.00 | 0.00 | 0.00 | 61 | 1018.7 |
| 20260504025738 | 55 | 182 | 2.0 | 4.0 | 0.00 | 0.00 | 0.00 | 61 | 1018.7 |
| 20260504025520 | 55 | 178 | 2.0 | 4.0 | 0.00 | 0.00 | 0.00 | 61 | 1018.7 |
| 20260504025421 | 55 | 180 | 2.0 | 4.0 | 0.00 | 0.00 | 0.00 | 61 | 1018.7 |
| 20260504025321 | 55 | 178 | 2.0 | 4.0 | 0.00 | 0.00 | 0.00 | 61 | 1018.8 |
| 20260504025244 | 55 | 194 | 2.0 | 4.0 | 0.00 | 0.00 | 0.00 | 61 | 1018.6 |
| 20260504025233 | 55 | 178 | 2.0 | 4.0 | 0.00 | 0.00 | 0.00 | 61 | 1018.7 |
| 20260504025038 | 55 | 185 | 2.0 | 4.0 | 0.00 | 0.00 | 0.00 | 60 | 1018.4 |
| 20260504025032 | 55 | 188 | 2.0 | 4.0 | 0.00 | 0.00 | 0.00 | 61 | 1018.4 |
| 20260504025028 | 55 | 170 | 2.0 | 4.0 | 0.00 | 0.00 | 0.00 | 60 | 1018.6 |
| 20260504025019 | 55 | 192 | 2.0 | 4.0 | 0.00 | 0.00 | 0.00 | 60 | 1018.7 |
| 20260504025000 | 55 | 194 | 2.0 | 4.0 | 0.00 | 0.00 | 0.00 | 61 | 1018.6 |
| 20260504024945 | 55 | 199 | 2.0 | 4.0 | 0.00 | 0.00 | 0.00 | 60 | 1018.6 |
| 20260504024550 | 55 | 205 | 2.0 | 4.0 | 0.00 | 0.00 | 0.00 | 61 | 1018.6 |
| 20260504024426 | 55 | 206 | 2.0 | 4.0 | 0.00 | 0.00 | 0.00 | 60 | 1018.6 |
| 20260504024211 | 55 | 186 | 2.0 | 7.0 | 0.00 | 0.00 | 0.00 | 60 | 1018.4 |
| 20260504024110 | 55 | 192 | 2.0 | 7.0 | 0.00 | 0.00 | 0.00 | 60 | 1018.4 |
| 20260504024011 | 56 | 193 | 2.0 | 7.0 | 0.00 | 0.00 | 0.00 | 60 | 1018.6 |
| 20260504023911 | 55 | 168 | 2.0 | 7.0 | 0.00 | 0.00 | 0.00 | 60 | 1018.4 |
| 20260504023808 | 56 | 167 | 2.0 | 7.0 | 0.00 | 0.00 | 0.00 | 60 | 1018.4 |
| 20260504023708 | 56 | 168 | 2.0 | 7.0 | 0.00 | 0.00 | 0.00 | 60 | 1018.4 |
| 20260504023609 | 56 | 183 | 2.0 | 7.0 | 0.00 | 0.00 | 0.00 | 60 | 1018.3 |
| 20260504023532 | 56 | 185 | 3.0 | 7.0 | 0.00 | 0.00 | 0.00 | 59 | 1018.2 |
| 20260504023528 | 56 | 178 | 3.0 | 7.0 | 0.00 | 0.00 | 0.00 | 60 | 1018.3 |
| 20260504023517 | 56 | 182 | 2.0 | 7.0 | 0.00 | 0.00 | 0.00 | 60 | 1018.3 |
| 20260504023501 | 56 | 182 | 3.0 | 7.0 | 0.00 | 0.00 | 0.00 | 60 | 1018.4 |
| 20260504023222 | 56 | 168 | 3.0 | 7.0 | 0.00 | 0.00 | 0.00 | 60 | 1018.4 |
| 20260504023007 | 56 | 182 | 2.0 | 7.0 | 0.00 | 0.00 | 0.00 | 60 | 1018.2 |
| 20260504022908 | 56 | 200 | 2.0 | 7.0 | 0.00 | 0.00 | 0.00 | 59 | 1018.2 |
| 20260504022804 | 56 | 190 | 2.0 | 7.0 | 0.00 | 0.00 | 0.00 | 60 | 1018.2 |
| 20260504022704 | 56 | 192 | 2.0 | 7.0 | 0.00 | 0.00 | 0.00 | 59 | 1018.2 |
| 20260504022602 | 56 | 150 | 2.0 | 7.0 | 0.00 | 0.00 | 0.00 | 59 | 1018.0 |
| 20260504022503 | 56 | 176 | 2.0 | 7.0 | 0.00 | 0.00 | 0.00 | 59 | 1018.0 |
| 20260504022402 | 56 | 184 | 2.0 | 7.0 | 0.00 | 0.00 | 0.00 | 60 | 1018.1 |
| 20260504022304 | 56 | 188 | 2.0 | 6.0 | 0.00 | 0.00 | 0.00 | 59 | 1018.1 |
| 20260504022200 | 56 | 182 | 2.0 | 6.0 | 0.00 | 0.00 | 0.00 | 60 | 1018.0 |
| 20260504022100 | 56 | 182 | 2.0 | 6.0 | 0.00 | 0.00 | 0.00 | 60 | 1018.0 |
| 20260504022001 | 56 | 177 | 2.0 | 6.0 | 0.00 | 0.00 | 0.00 | 60 | 1018.1 |
| 20260504021949 | 56 | 175 | 2.0 | 6.0 | 0.00 | 0.00 | 0.00 | 59 | 1017.9 |
| 20260504021933 | 56 | 176 | 2.0 | 6.0 | 0.00 | 0.00 | 0.00 | 59 | 1017.9 |
| 20260504021812 | 56 | 176 | 2.0 | 6.0 | 0.00 | 0.00 | 0.00 | 59 | 1017.9 |
| 20260504021557 | 56 | 192 | 2.0 | 6.0 | 0.00 | 0.00 | 0.00 | 59 | 1017.9 |
| 20260504021457 | 56 | 182 | 2.0 | 6.0 | 0.00 | 0.00 | 0.00 | 60 | 1017.9 |
| 20260504021422 | 56 | 187 | 2.0 | 6.0 | 0.00 | 0.00 | 0.00 | 59 | 1017.8 |
| 20260504021411 | 56 | 188 | 2.0 | 6.0 | 0.00 | 0.00 | 0.00 | 59 | 1017.8 |
| 20260504021153 | 56 | 188 | 2.0 | 6.0 | 0.00 | 0.00 | 0.00 | 59 | 1017.8 |
| 20260504021052 | 56 | 180 | 2.0 | 6.0 | 0.00 | 0.00 | 0.00 | 59 | 1017.8 |
| 20260504020953 | 56 | 179 | 3.0 | 6.0 | 0.00 | 0.00 | 0.00 | 59 | 1017.8 |
| 20260504020850 | 56 | 173 | 3.0 | 6.0 | 0.00 | 0.00 | 0.00 | 59 | 1017.7 |
| 20260504020815 | 56 | 194 | 3.0 | 6.0 | 0.00 | 0.00 | 0.00 | 59 | 1017.8 |
| 20260504020803 | 56 | 194 | 3.0 | 6.0 | 0.00 | 0.00 | 0.00 | 59 | 1017.8 |
| 20260504020614 | 56 | 187 | 2.0 | 6.0 | 0.00 | 0.00 | 0.00 | 59 | 1017.7 |
| 20260504020609 | 56 | 178 | 2.0 | 6.0 | 0.00 | 0.00 | 0.00 | 59 | 1017.7 |
| 20260504020559 | 56 | 194 | 3.0 | 6.0 | 0.00 | 0.00 | 0.00 | 59 | 1017.7 |
| 20260504020538 | 56 | 190 | 3.0 | 6.0 | 0.00 | 0.00 | 0.00 | 59 | 1017.8 |
| 20260504020416 | 56 | 152 | 2.0 | 6.0 | 0.00 | 0.00 | 0.00 | 59 | 1017.7 |
| 20260504020043 | 56 | 174 | 2.0 | 6.0 | 0.00 | 0.00 | 0.00 | 59 | 1017.7 |
| 20260504015942 | 56 | 167 | 2.0 | 6.0 | 0.00 | 0.00 | 0.00 | 59 | 1017.8 |
| 20260504015842 | 56 | 186 | 2.0 | 6.0 | 0.00 | 0.00 | 0.00 | 59 | 1017.7 |
| 20260504015740 | 56 | 183 | 2.0 | 6.0 | 0.00 | 0.00 | 0.00 | 59 | 1017.7 |
| 20260504015640 | 56 | 183 | 2.0 | 6.0 | 0.00 | 0.00 | 0.00 | 59 | 1017.7 |
| 20260504015538 | 56 | 182 | 2.0 | 6.0 | 0.00 | 0.00 | 0.00 | 59 | 1017.7 |
| 20260504015503 | 56 | 192 | 2.0 | 6.0 | 0.00 | 0.00 | 0.00 | 59 | 1017.7 |
| 20260504015452 | 56 | 192 | 2.0 | 6.0 | 0.00 | 0.00 | 0.00 | 59 | 1017.6 |
| 20260504015235 | 57 | 194 | 2.0 | 6.0 | 0.00 | 0.00 | 0.00 | 59 | 1017.7 |
| 20260504015129 | 57 | 158 | 2.0 | 6.0 | 0.00 | 0.00 | 0.00 | 58 | 1017.6 |
| 20260504015028 | 57 | 164 | 2.0 | 6.0 | 0.00 | 0.00 | 0.00 | 58 | 1017.7 |
| 20260504014931 | 57 | 163 | 2.0 | 6.0 | 0.00 | 0.00 | 0.00 | 59 | 1017.6 |
| 20260504014925 | 57 | 186 | 2.0 | 5.0 | 0.00 | 0.00 | 0.00 | 57 | 1017.7 |
| 20260504014909 | 57 | 163 | 2.0 | 6.0 | 0.00 | 0.00 | 0.00 | 58 | 1017.7 |
| 20260504014753 | 57 | 207 | 2.0 | 5.0 | 0.00 | 0.00 | 0.00 | 57 | 1017.7 |
| 20260504014748 | 57 | 208 | 2.0 | 5.0 | 0.00 | 0.00 | 0.00 | 57 | 1017.6 |
| 20260504014743 | 57 | 186 | 2.0 | 5.0 | 0.00 | 0.00 | 0.00 | 58 | 1017.7 |
| 20260504014735 | 57 | 161 | 2.0 | 6.0 | 0.00 | 0.00 | 0.00 | 58 | 1017.7 |
| 20260504014711 | 57 | 180 | 2.0 | 6.0 | 0.00 | 0.00 | 0.00 | 58 | 1017.6 |
| 20260504014558 | 57 | 201 | 2.0 | 5.0 | 0.00 | 0.00 | 0.00 | 57 | 1017.7 |
| 20260504014545 | 57 | 188 | 2.0 | 6.0 | 0.00 | 0.00 | 0.00 | 58 | 1017.7 |
| 20260504014422 | 57 | 188 | 2.0 | 6.0 | 0.00 | 0.00 | 0.00 | 58 | 1017.6 |
| 20260504014403 | 57 | 185 | 2.0 | 5.0 | 0.00 | 0.00 | 0.00 | 58 | 1017.7 |
| 20260504014234 | 57 | 186 | 2.0 | 5.0 | 0.00 | 0.00 | 0.00 | 58 | 1017.6 |
| 20260504013839 | 57 | 204 | 2.0 | 5.0 | 0.00 | 0.00 | 0.00 | 57 | 1017.7 |
| 20260504013507 | 57 | 186 | 2.0 | 5.0 | 0.00 | 0.00 | 0.00 | 57 | 1017.7 |
| 20260504013407 | 58 | 196 | 2.0 | 5.0 | 0.00 | 0.00 | 0.00 | 57 | 1017.7 |
| 20260504013307 | 58 | 184 | 2.0 | 5.0 | 0.00 | 0.00 | 0.00 | 57 | 1017.6 |
| 20260504013206 | 58 | 170 | 2.0 | 4.0 | 0.00 | 0.00 | 0.00 | 56 | 1017.7 |
| 20260504013058 | 58 | 170 | 2.0 | 4.0 | 0.00 | 0.00 | 0.00 | 57 | 1017.7 |
| 20260504012956 | 58 | 169 | 2.0 | 4.0 | 0.00 | 0.00 | 0.00 | 56 | 1017.7 |
| 20260504012923 | 58 | 167 | 1.0 | 4.0 | 0.00 | 0.00 | 0.00 | 57 | 1017.7 |
| 20260504012911 | 58 | 168 | 2.0 | 4.0 | 0.00 | 0.00 | 0.00 | 57 | 1017.7 |
| 20260504012657 | 58 | 198 | 1.0 | 4.0 | 0.00 | 0.00 | 0.00 | 57 | 1017.7 |
| 20260504012553 | 58 | 188 | 1.0 | 4.0 | 0.00 | 0.00 | 0.00 | 57 | 1017.7 |
| 20260504012452 | 58 | 186 | 1.0 | 4.0 | 0.00 | 0.00 | 0.00 | 57 | 1017.8 |
| 20260504012353 | 58 | 182 | 1.0 | 3.0 | 0.00 | 0.00 | 0.00 | 57 | 1017.7 |
| 20260504012253 | 58 | 182 | 1.0 | 3.0 | 0.00 | 0.00 | 0.00 | 56 | 1017.7 |
| 20260504012152 | 58 | 192 | 1.0 | 3.0 | 0.00 | 0.00 | 0.00 | 57 | 1017.7 |
| 20260504012052 | 58 | 188 | 1.0 | 4.0 | 0.00 | 0.00 | 0.00 | 56 | 1017.8 |
| 20260504011951 | 58 | 188 | 1.0 | 4.0 | 0.00 | 0.00 | 0.00 | 56 | 1017.8 |
| 20260504011848 | 58 | 186 | 1.0 | 4.0 | 0.00 | 0.00 | 0.00 | 56 | 1017.8 |
| 20260504011748 | 58 | 198 | 1.0 | 4.0 | 0.00 | 0.00 | 0.00 | 57 | 1017.7 |
| 20260504011649 | 58 | 205 | 1.0 | 4.0 | 0.00 | 0.00 | 0.00 | 57 | 1017.7 |
| 20260504011547 | 58 | 205 | 1.0 | 4.0 | 0.00 | 0.00 | 0.00 | 57 | 1017.7 |
| 20260504011513 | 58 | 188 | 1.0 | 4.0 | 0.00 | 0.00 | 0.00 | 57 | 1017.6 |
| 20260504011502 | 58 | 202 | 1.0 | 4.0 | 0.00 | 0.00 | 0.00 | 57 | 1017.6 |
| 20260504011335 | 58 | 188 | 1.0 | 4.0 | 0.00 | 0.00 | 0.00 | 56 | 1017.6 |
| 20260504011320 | 58 | 188 | 1.0 | 4.0 | 0.00 | 0.00 | 0.00 | 57 | 1017.7 |
| 20260504011158 | 58 | 188 | 1.0 | 4.0 | 0.00 | 0.00 | 0.00 | 56 | 1017.6 |
| 20260504010941 | 58 | 188 | 1.0 | 4.0 | 0.00 | 0.00 | 0.00 | 56 | 1017.6 |
| 20260504010841 | 58 | 188 | 1.0 | 4.0 | 0.00 | 0.00 | 0.00 | 56 | 1017.6 |
| 20260504010806 | 58 | 189 | 1.0 | 4.0 | 0.00 | 0.00 | 0.00 | 55 | 1017.5 |
| 20260504010755 | 58 | 189 | 1.0 | 4.0 | 0.00 | 0.00 | 0.00 | 56 | 1017.6 |
| 20260504010537 | 58 | 189 | 1.0 | 4.0 | 0.00 | 0.00 | 0.00 | 56 | 1017.5 |
| 20260504010439 | 58 | 189 | 1.0 | 4.0 | 0.00 | 0.00 | 0.00 | 56 | 1017.7 |
| 20260504010403 | 58 | 190 | 1.0 | 4.0 | 0.00 | 0.00 | 0.00 | 55 | 1017.5 |
| 20260504010352 | 58 | 190 | 1.0 | 4.0 | 0.00 | 0.00 | 0.00 | 55 | 1017.5 |
| 20260504010138 | 58 | 190 | 1.0 | 4.0 | 0.00 | 0.00 | 0.00 | 55 | 1017.7 |
| 20260504010107 | 58 | 187 | 1.0 | 2.0 | 0.00 | 0.00 | 0.00 | 55 | 1017.6 |
| 20260504010055 | 58 | 186 | 1.0 | 2.0 | 0.00 | 0.00 | 0.00 | 55 | 1017.6 |
| 20260504005838 | 58 | 187 | 1.0 | 2.0 | 0.00 | 0.00 | 0.00 | 55 | 1017.6 |
| 20260504005739 | 58 | 185 | 1.0 | 2.0 | 0.00 | 0.00 | 0.00 | 55 | 1017.7 |
| 20260504005638 | 58 | 185 | 1.0 | 3.0 | 0.00 | 0.00 | 0.00 | 55 | 1017.7 |
| 20260504005538 | 58 | 184 | 1.0 | 3.0 | 0.00 | 0.00 | 0.00 | 55 | 1017.7 |
| 20260504005505 | 58 | 186 | 1.0 | 3.0 | 0.00 | 0.00 | 0.00 | 55 | 1017.7 |
| 20260504005452 | 58 | 184 | 1.0 | 3.0 | 0.00 | 0.00 | 0.00 | 55 | 1017.7 |
| 20260504005238 | 58 | 186 | 1.0 | 3.0 | 0.00 | 0.00 | 0.00 | 55 | 1017.7 |
| 20260504005139 | 59 | 189 | 1.0 | 3.0 | 0.00 | 0.00 | 0.00 | 54 | 1017.7 |
| 20260504005037 | 59 | 189 | 1.0 | 3.0 | 0.00 | 0.00 | 0.00 | 54 | 1017.7 |
| 20260504004937 | 59 | 189 | 1.0 | 3.0 | 0.00 | 0.00 | 0.00 | 55 | 1017.7 |
| 20260504004836 | 59 | 189 | 1.0 | 3.0 | 0.00 | 0.00 | 0.00 | 55 | 1017.7 |
| 20260504004736 | 59 | 190 | 1.0 | 3.0 | 0.00 | 0.00 | 0.00 | 54 | 1017.7 |
| 20260504004637 | 59 | 190 | 1.0 | 3.0 | 0.00 | 0.00 | 0.00 | 54 | 1017.7 |
| 20260504004537 | 59 | 190 | 1.0 | 3.0 | 0.00 | 0.00 | 0.00 | 54 | 1017.7 |
| 20260504004437 | 59 | 190 | 1.0 | 3.0 | 0.00 | 0.00 | 0.00 | 53 | 1017.7 |
| 20260504004336 | 59 | 190 | 1.0 | 3.0 | 0.00 | 0.00 | 0.00 | 53 | 1017.7 |
| 20260504004303 | 59 | 190 | 1.0 | 3.0 | 0.00 | 0.00 | 0.00 | 53 | 1017.6 |
| 20260504004251 | 59 | 190 | 1.0 | 3.0 | 0.00 | 0.00 | 0.00 | 53 | 1017.7 |
| 20260504004036 | 59 | 190 | 1.0 | 3.0 | 0.00 | 0.00 | 0.00 | 53 | 1017.6 |
| 20260504003936 | 59 | 190 | 1.0 | 3.0 | 0.00 | 0.00 | 0.00 | 54 | 1017.7 |
| 20260504003903 | 59 | 190 | 1.0 | 3.0 | 0.00 | 0.00 | 0.00 | 53 | 1017.6 |
| 20260504003851 | 59 | 190 | 1.0 | 3.0 | 0.00 | 0.00 | 0.00 | 53 | 1017.6 |
| 20260504003637 | 59 | 190 | 1.0 | 2.0 | 0.00 | 0.00 | 0.00 | 53 | 1017.7 |
| 20260504003603 | 59 | 190 | 0.0 | 2.0 | 0.00 | 0.00 | 0.00 | 53 | 1017.7 |
| 20260504003552 | 59 | 190 | 1.0 | 2.0 | 0.00 | 0.00 | 0.00 | 53 | 1017.7 |
| 20260504003337 | 59 | 190 | 0.0 | 2.0 | 0.00 | 0.00 | 0.00 | 52 | 1017.7 |
| 20260504003236 | 60 | 190 | 0.0 | 3.0 | 0.00 | 0.00 | 0.00 | 53 | 1017.7 |
| 20260504003137 | 60 | 189 | 0.0 | 3.0 | 0.00 | 0.00 | 0.00 | 52 | 1017.7 |
| 20260504003106 | 60 | 189 | 0.0 | 3.0 | 0.00 | 0.00 | 0.00 | 52 | 1017.8 |
| 20260504003053 | 60 | 189 | 0.0 | 3.0 | 0.00 | 0.00 | 0.00 | 52 | 1017.7 |
| 20260504002837 | 60 | 188 | 0.0 | 3.0 | 0.00 | 0.00 | 0.00 | 52 | 1017.8 |
| 20260504002736 | 60 | 188 | 0.0 | 3.0 | 0.00 | 0.00 | 0.00 | 52 | 1017.8 |
| 20260504002636 | 60 | 187 | 0.0 | 3.0 | 0.00 | 0.00 | 0.00 | 52 | 1017.8 |
| 20260504002538 | 60 | 187 | 0.0 | 3.0 | 0.00 | 0.00 | 0.00 | 52 | 1017.8 |
| 20260504002437 | 60 | 187 | 0.0 | 3.0 | 0.00 | 0.00 | 0.00 | 52 | 1017.8 |
| 20260504002333 | 60 | 187 | 0.0 | 3.0 | 0.00 | 0.00 | 0.00 | 53 | 1017.8 |
| 20260504002231 | 60 | 192 | 0.0 | 2.0 | 0.00 | 0.00 | 0.00 | 52 | 1017.9 |
| 20260504002132 | 60 | 190 | 0.0 | 2.0 | 0.00 | 0.00 | 0.00 | 53 | 1017.8 |
| 20260504002118 | 60 | 190 | 0.0 | 2.0 | 0.00 | 0.00 | 0.00 | 52 | 1017.9 |
| 20260504002113 | 60 | 190 | 0.0 | 2.0 | 0.00 | 0.00 | 0.00 | 52 | 1017.9 |
| 20260504002100 | 60 | 190 | 0.0 | 2.0 | 0.00 | 0.00 | 0.00 | 52 | 1017.9 |
| 20260504001758 | 60 | 190 | 0.0 | 2.0 | 0.00 | 0.00 | 0.00 | 52 | 1018.0 |
| 20260504001747 | 60 | 190 | 0.0 | 2.0 | 0.00 | 0.00 | 0.00 | 52 | 1018.0 |
| 20260504001533 | 60 | 190 | 0.0 | 2.0 | 0.00 | 0.00 | 0.00 | 52 | 1018.0 |
| 20260504001432 | 60 | 190 | 0.0 | 2.0 | 0.00 | 0.00 | 0.00 | 51 | 1018.0 |
| 20260504001332 | 60 | 190 | 1.0 | 2.0 | 0.00 | 0.00 | 0.00 | 51 | 1017.9 |
| 20260504001300 | 60 | 195 | 1.0 | 2.0 | 0.00 | 0.00 | 0.00 | 51 | 1018.0 |
| 20260504001247 | 60 | 190 | 1.0 | 2.0 | 0.00 | 0.00 | 0.00 | 51 | 1018.0 |
| 20260504001057 | 60 | 194 | 1.0 | 2.0 | 0.00 | 0.00 | 0.00 | 50 | 1018.1 |
| 20260504001047 | 60 | 194 | 1.0 | 2.0 | 0.00 | 0.00 | 0.00 | 50 | 1018.0 |
| 20260504000833 | 60 | 192 | 1.0 | 2.0 | 0.00 | 0.00 | 0.00 | 50 | 1018.0 |
| 20260504000733 | 60 | 194 | 1.0 | 2.0 | 0.00 | 0.00 | 0.00 | 50 | 1018.0 |
| 20260504000633 | 60 | 194 | 1.0 | 2.0 | 0.00 | 0.00 | 0.00 | 50 | 1018.1 |
| 20260504000532 | 60 | 194 | 1.0 | 2.0 | 0.00 | 0.00 | 0.00 | 50 | 1018.0 |
| 20260504000500 | 61 | 190 | 0.0 | 2.0 | 0.00 | 0.00 | 0.00 | 50 | 1018.1 |
| 20260504000447 | 61 | 194 | 1.0 | 2.0 | 0.00 | 0.00 | 0.00 | 50 | 1018.1 |
| 20260504000234 | 61 | 197 | 0.0 | 2.0 | 0.00 | 0.00 | 0.00 | 50 | 1018.1 |
| 20260504000131 | 61 | 196 | 0.0 | 2.0 | 0.00 | 0.00 | 0.00 | 50 | 1018.1 |
| 20260504000032 | 61 | 196 | 0.0 | 2.0 | 0.00 | 0.00 | 0.00 | 50 | 1018.1 |
| 20260503235932 | 61 | 197 | 0.0 | 2.0 | 0.00 | 0.00 | 0.00 | 50 | 1018.2 |
| 20260503235832 | 61 | 193 | 0.0 | 2.0 | 0.00 | 0.00 | 0.00 | 50 | 1018.1 |
| 20260503235731 | 61 | 193 | 0.0 | 1.0 | 0.00 | 0.00 | 0.00 | 50 | 1018.0 |
| 20260503235633 | 61 | 193 | 0.0 | 1.0 | 0.00 | 0.00 | 0.00 | 50 | 1018.2 |
| 20260503235532 | 61 | 192 | 0.0 | 1.0 | 0.00 | 0.00 | 0.00 | 50 | 1018.1 |
| 20260503235433 | 61 | 194 | 0.0 | 1.0 | 0.00 | 0.00 | 0.00 | 50 | 1018.0 |
| 20260503235332 | 61 | 194 | 0.0 | 1.0 | 0.00 | 0.00 | 0.00 | 50 | 1018.1 |
| 20260503235232 | 61 | 194 | 0.0 | 1.0 | 0.00 | 0.00 | 0.00 | 50 | 1018.0 |
| 20260503235132 | 61 | 194 | 0.0 | 2.0 | 0.00 | 0.00 | 0.00 | 50 | 1018.1 |
| 20260503235028 | 61 | 194 | 0.0 | 2.0 | 0.00 | 0.00 | 0.00 | 49 | 1018.1 |
| 20260503234952 | 61 | 195 | 0.0 | 2.0 | 0.00 | 0.00 | 0.00 | 49 | 1018.1 |
| 20260503234941 | 61 | 194 | 0.0 | 2.0 | 0.00 | 0.00 | 0.00 | 48 | 1018.1 |
| 20260503234726 | 61 | 195 | 0.0 | 2.0 | 0.00 | 0.00 | 0.00 | 49 | 1018.0 |
| 20260503234624 | 61 | 195 | 0.0 | 3.0 | 0.00 | 0.00 | 0.00 | 48 | 1018.1 |
| 20260503234519 | 61 | 195 | 0.0 | 3.0 | 0.00 | 0.00 | 0.00 | 49 | 1018.2 |
| 20260503234418 | 61 | 195 | 0.0 | 3.0 | 0.00 | 0.00 | 0.00 | 48 | 1018.1 |
| 20260503234344 | 62 | 195 | 0.0 | 3.0 | 0.00 | 0.00 | 0.00 | 48 | 1018.1 |
| 20260503234331 | 62 | 195 | 0.0 | 3.0 | 0.00 | 0.00 | 0.00 | 48 | 1018.0 |
| 20260503234136 | 62 | 195 | 0.0 | 3.0 | 0.00 | 0.01 | 0.00 | 48 | 1018.0 |
| 20260503234125 | 62 | 195 | 0.0 | 3.0 | 0.00 | 0.00 | 0.00 | 47 | 1018.0 |
| 20260503233909 | 62 | 195 | 0.0 | 3.0 | 0.00 | 0.01 | 0.00 | 48 | 1018.0 |
| 20260503233807 | 62 | 195 | 1.0 | 3.0 | 0.00 | 0.01 | 0.00 | 48 | 1018.0 |
| 20260503233709 | 62 | 195 | 1.0 | 3.0 | 0.00 | 0.01 | 0.00 | 48 | 1018.0 |
| 20260503233608 | 62 | 195 | 1.0 | 3.0 | 0.00 | 0.01 | 0.00 | 47 | 1018.0 |
| 20260503233503 | 62 | 195 | 1.0 | 3.0 | 0.00 | 0.01 | 0.00 | 47 | 1018.0 |
| 20260503233403 | 62 | 195 | 1.0 | 3.0 | 0.00 | 0.01 | 0.00 | 46 | 1017.9 |
| 20260503233302 | 62 | 197 | 1.0 | 3.0 | 0.00 | 0.01 | 0.00 | 46 | 1018.0 |
| 20260503233201 | 62 | 196 | 1.0 | 3.0 | 0.00 | 0.01 | 0.00 | 46 | 1017.9 |
| 20260503233123 | 62 | 282 | 0.0 | 4.0 | 0.00 | 0.01 | 0.00 | 46 | 1018.0 |
| 20260503233112 | 62 | 186 | 1.0 | 3.0 | 0.00 | 0.01 | 0.00 | 46 | 1017.9 |
| 20260503233056 | 62 | 211 | 0.0 | 4.0 | 0.00 | 0.01 | 0.00 | 46 | 1018.0 |
| 20260503232933 | 62 | 217 | 0.0 | 4.0 | 0.00 | 0.01 | 0.00 | 46 | 1018.0 |
| 20260503232808 | 62 | 241 | 0.0 | 4.0 | 0.00 | 0.01 | 0.00 | 47 | 1018.0 |
| 20260503232552 | 62 | 235 | 0.0 | 4.0 | 0.00 | 0.01 | 0.00 | 46 | 1018.0 |
| 20260503232452 | 62 | 236 | 0.0 | 4.0 | 0.00 | 0.01 | 0.00 | 46 | 1017.9 |
| 20260503232418 | 62 | 212 | 0.0 | 4.0 | 0.00 | 0.01 | 0.00 | 46 | 1018.0 |
| 20260503232406 | 62 | 236 | 0.0 | 4.0 | 0.00 | 0.01 | 0.00 | 46 | 1017.9 |
| 20260503232148 | 62 | 209 | 0.0 | 4.0 | 0.00 | 0.01 | 0.00 | 46 | 1017.9 |
| 20260503232048 | 62 | 211 | 1.0 | 4.0 | 0.00 | 0.01 | 0.00 | 46 | 1018.0 |
| 20260503231947 | 62 | 214 | 1.0 | 4.0 | 0.00 | 0.01 | 0.00 | 45 | 1017.9 |
| 20260503231849 | 62 | 215 | 1.0 | 4.0 | 0.00 | 0.01 | 0.00 | 45 | 1018.0 |
| 20260503231815 | 62 | 201 | 1.0 | 4.0 | 0.00 | 0.01 | 0.00 | 46 | 1018.0 |
| 20260503231802 | 62 | 247 | 1.0 | 4.0 | 0.00 | 0.01 | 0.00 | 46 | 1017.9 |
| 20260503231547 | 62 | 201 | 1.0 | 4.0 | 0.00 | 0.01 | 0.00 | 45 | 1018.0 |
| 20260503231444 | 62 | 200 | 1.0 | 4.0 | 0.00 | 0.01 | 0.00 | 46 | 1018.0 |
| 20260503231344 | 63 | 200 | 1.0 | 4.0 | 0.00 | 0.01 | 0.00 | 46 | 1018.1 |
| 20260503231243 | 63 | 201 | 1.0 | 4.0 | 0.00 | 0.01 | 0.00 | 44 | 1018.1 |
| 20260503231140 | 63 | 214 | 1.0 | 4.0 | 0.00 | 0.01 | 0.00 | 43 | 1018.1 |
| 20260503231041 | 62 | 113 | 1.0 | 4.0 | 0.00 | 0.01 | 0.00 | 44 | 1018.1 |
| 20260503230941 | 62 | 173 | 1.0 | 4.0 | 0.00 | 0.01 | 0.00 | 44 | 1018.2 |
| 20260503230838 | 62 | 249 | 1.0 | 6.0 | 0.00 | 0.01 | 0.00 | 45 | 1018.2 |
| 20260503230738 | 62 | 134 | 2.0 | 6.0 | 0.00 | 0.01 | 0.00 | 46 | 1018.1 |
| 20260503230636 | 63 | 111 | 2.0 | 8.0 | 0.00 | 0.01 | 0.00 | 46 | 1018.2 |
| 20260503230536 | 63 | 254 | 2.0 | 8.0 | 0.00 | 0.01 | 0.00 | 45 | 1018.2 |
| 20260503230433 | 63 | 281 | 2.0 | 8.0 | 0.00 | 0.01 | 0.00 | 46 | 1018.3 |
| 20260503230332 | 63 | 186 | 2.0 | 8.0 | 0.00 | 0.01 | 0.00 | 45 | 1018.2 |
| 20260503230231 | 63 | 193 | 2.0 | 8.0 | 0.00 | 0.01 | 0.00 | 45 | 1018.2 |
| 20260503230132 | 63 | 207 | 2.0 | 8.0 | 0.00 | 0.01 | 0.00 | 45 | 1018.2 |
| 20260503230032 | 63 | 175 | 2.0 | 8.0 | 0.00 | 0.01 | 0.00 | 47 | 1018.3 |
| 20260503225933 | 63 | 238 | 2.0 | 8.0 | 0.00 | 0.01 | 0.00 | 44 | 1018.3 |
| 20260503225853 | 63 | 182 | 2.0 | 7.0 | 0.00 | 0.01 | 0.00 | 45 | 1018.4 |
| 20260503225842 | 63 | 195 | 2.0 | 8.0 | 0.00 | 0.01 | 0.00 | 45 | 1018.3 |
| 20260503225825 | 63 | 244 | 2.0 | 8.0 | 0.00 | 0.01 | 0.00 | 45 | 1018.2 |
| 20260503225702 | 63 | 179 | 2.0 | 7.0 | 0.00 | 0.01 | 0.00 | 45 | 1018.3 |
| 20260503225538 | 63 | 194 | 2.0 | 7.0 | 0.00 | 0.01 | 0.00 | 46 | 1018.3 |
| 20260503225324 | 63 | 180 | 2.0 | 7.0 | 0.00 | 0.01 | 0.00 | 46 | 1018.4 |
| 20260503225217 | 63 | 180 | 1.0 | 7.0 | 0.00 | 0.01 | 0.00 | 45 | 1018.6 |
| 20260503225119 | 63 | 201 | 1.0 | 7.0 | 0.00 | 0.01 | 0.00 | 45 | 1018.4 |
| 20260503225018 | 63 | 200 | 1.0 | 7.0 | 0.00 | 0.01 | 0.00 | 46 | 1018.6 |
| 20260503224946 | 63 | 158 | 1.0 | 7.0 | 0.00 | 0.01 | 0.00 | 45 | 1018.6 |
| 20260503224933 | 63 | 196 | 1.0 | 7.0 | 0.00 | 0.01 | 0.00 | 45 | 1018.6 |
| 20260503224714 | 63 | 179 | 1.0 | 8.0 | 0.00 | 0.01 | 0.00 | 47 | 1018.6 |
| 20260503224612 | 63 | 181 | 1.0 | 8.0 | 0.00 | 0.01 | 0.00 | 46 | 1018.6 |
| 20260503224512 | 63 | 180 | 1.0 | 8.0 | 0.00 | 0.01 | 0.00 | 46 | 1018.7 |
| 20260503224413 | 63 | 279 | 1.0 | 8.0 | 0.00 | 0.01 | 0.00 | 47 | 1018.7 |
| 20260503224312 | 63 | 177 | 2.0 | 8.0 | 0.00 | 0.01 | 0.00 | 46 | 1018.7 |
| 20260503224207 | 63 | 187 | 2.0 | 8.0 | 0.00 | 0.01 | 0.00 | 45 | 1018.7 |
| 20260503224107 | 63 | 187 | 2.0 | 8.0 | 0.00 | 0.01 | 0.00 | 45 | 1018.7 |
| 20260503224006 | 63 | 187 | 2.0 | 8.0 | 0.00 | 0.01 | 0.00 | 45 | 1018.7 |
| 20260503223904 | 63 | 189 | 2.0 | 8.0 | 0.00 | 0.01 | 0.00 | 45 | 1018.6 |
| 20260503223802 | 63 | 138 | 1.0 | 8.0 | 0.00 | 0.01 | 0.00 | 45 | 1018.7 |
| 20260503223701 | 63 | 184 | 1.0 | 4.0 | 0.00 | 0.01 | 0.00 | 47 | 1018.7 |
| 20260503223600 | 63 | 184 | 2.0 | 4.0 | 0.00 | 0.01 | 0.00 | 46 | 1018.7 |
| 20260503223459 | 63 | 184 | 2.0 | 4.0 | 0.00 | 0.01 | 0.00 | 46 | 1018.7 |
| 20260503223441 | 63 | 178 | 1.0 | 4.0 | 0.00 | 0.01 | 0.00 | 45 | 1018.7 |
| 20260503223436 | 63 | 200 | 1.0 | 4.0 | 0.00 | 0.01 | 0.00 | 46 | 1018.7 |
| 20260503223422 | 63 | 200 | 1.0 | 4.0 | 0.00 | 0.01 | 0.00 | 45 | 1018.7 |
| 20260503223051 | 63 | 199 | 1.0 | 4.0 | 0.00 | 0.01 | 0.00 | 46 | 1018.7 |
| 20260503223018 | 63 | 225 | 1.0 | 4.0 | 0.00 | 0.01 | 0.00 | 45 | 1018.8 |
| 20260503223006 | 63 | 198 | 1.0 | 4.0 | 0.00 | 0.01 | 0.00 | 44 | 1018.7 |
| 20260503222750 | 63 | 179 | 1.0 | 4.0 | 0.00 | 0.01 | 0.00 | 44 | 1018.7 |
| 20260503222640 | 63 | 156 | 1.0 | 4.0 | 0.00 | 0.01 | 0.00 | 46 | 1018.7 |
| 20260503222541 | 63 | 178 | 1.0 | 4.0 | 0.00 | 0.01 | 0.00 | 46 | 1018.8 |
| 20260503222441 | 63 | 134 | 1.0 | 4.0 | 0.00 | 0.01 | 0.00 | 46 | 1018.7 |
| 20260503222408 | 63 | 240 | 1.0 | 4.0 | 0.00 | 0.01 | 0.00 | 47 | 1018.8 |
| 20260503222356 | 63 | 181 | 1.0 | 4.0 | 0.00 | 0.01 | 0.00 | 46 | 1018.7 |
| 20260503222140 | 63 | 140 | 1.0 | 4.0 | 0.00 | 0.01 | 0.00 | 50 | 1018.9 |
| 20260503222038 | 63 | 5 | 1.0 | 4.0 | 0.00 | 0.01 | 0.00 | 48 | 1018.7 |
| 20260503221939 | 63 | 5 | 1.0 | 4.0 | 0.00 | 0.01 | 0.00 | 50 | 1018.8 |
| 20260503221921 | 63 | 9 | 1.0 | 4.0 | 0.00 | 0.01 | 0.00 | 47 | 1018.7 |
| 20260503221916 | 63 | 63 | 1.0 | 4.0 | 0.00 | 0.01 | 0.00 | 47 | 1018.7 |
| 20260503221902 | 63 | 5 | 1.0 | 4.0 | 0.00 | 0.01 | 0.00 | 47 | 1018.8 |
| 20260503221530 | 63 | 49 | 1.0 | 4.0 | 0.00 | 0.01 | 0.00 | 46 | 1018.8 |
| 20260503221429 | 63 | 50 | 1.0 | 4.0 | 0.00 | 0.01 | 0.00 | 49 | 1018.8 |
| 20260503221331 | 63 | 53 | 1.0 | 4.0 | 0.00 | 0.01 | 0.00 | 51 | 1018.8 |
| 20260503221228 | 63 | 50 | 1.0 | 4.0 | 0.00 | 0.01 | 0.00 | 47 | 1018.8 |
| 20260503221118 | 63 | 50 | 1.0 | 4.0 | 0.00 | 0.01 | 0.00 | 47 | 1018.8 |
| 20260503221017 | 63 | 50 | 1.0 | 4.0 | 0.00 | 0.01 | 0.00 | 47 | 1018.8 |
| 20260503220918 | 63 | 50 | 1.0 | 4.0 | 0.00 | 0.01 | 0.00 | 46 | 1018.8 |
| 20260503220845 | 63 | 24 | 1.0 | 4.0 | 0.00 | 0.01 | 0.00 | 46 | 1018.8 |
| 20260503220833 | 63 | 51 | 1.0 | 4.0 | 0.00 | 0.01 | 0.00 | 46 | 1018.8 |
| 20260503220617 | 63 | 24 | 1.0 | 4.0 | 0.00 | 0.01 | 0.00 | 44 | 1018.8 |
| 20260503220516 | 63 | 275 | 1.0 | 4.0 | 0.00 | 0.01 | 0.00 | 44 | 1018.9 |
| 20260503220415 | 63 | 311 | 1.0 | 4.0 | 0.00 | 0.01 | 0.00 | 44 | 1018.9 |
| 20260503220314 | 63 | 306 | 1.0 | 4.0 | 0.00 | 0.01 | 0.00 | 46 | 1018.9 |
| 20260503220232 | 63 | 18 | 1.0 | 5.0 | 0.00 | 0.01 | 0.00 | 45 | 1019.1 |
| 20260503220227 | 63 | 200 | 1.0 | 4.0 | 0.00 | 0.01 | 0.00 | 48 | 1019.1 |
| 20260503220218 | 63 | 246 | 1.0 | 4.0 | 0.00 | 0.01 | 0.00 | 48 | 1019.0 |
| 20260503220158 | 63 | 355 | 1.0 | 4.0 | 0.00 | 0.01 | 0.00 | 45 | 1019.0 |
| 20260503220045 | 63 | 22 | 1.0 | 5.0 | 0.00 | 0.01 | 0.00 | 43 | 1019.0 |
| 20260503220040 | 63 | 180 | 1.0 | 4.0 | 0.00 | 0.01 | 0.00 | 46 | 1019.1 |
| 20260503220028 | 63 | 0 | 1.0 | 4.0 | 0.00 | 0.01 | 0.00 | 47 | 1019.0 |
| 20260503220012 | 63 | 35 | 1.0 | 4.0 | 0.00 | 0.01 | 0.00 | 48 | 1018.9 |
| 20260503215744 | 63 | 178 | 1.0 | 4.0 | 0.00 | 0.01 | 0.00 | 49 | 1019.0 |
| 20260503215730 | 63 | 180 | 1.0 | 4.0 | 0.00 | 0.01 | 0.00 | 45 | 1018.9 |
| 20260503215451 | 63 | 136 | 1.0 | 4.0 | 0.00 | 0.01 | 0.00 | 49 | 1018.9 |
| 20260503215447 | 63 | 158 | 1.0 | 4.0 | 0.00 | 0.01 | 0.00 | 48 | 1018.9 |
| 20260503215442 | 63 | 176 | 1.0 | 5.0 | 0.00 | 0.01 | 0.00 | 43 | 1019.0 |
| 20260503215427 | 63 | 136 | 1.0 | 4.0 | 0.00 | 0.01 | 0.00 | 49 | 1018.9 |
| 20260503215138 | 63 | 161 | 1.0 | 5.0 | 0.00 | 0.01 | 0.00 | 47 | 1019.0 |
| 20260503215015 | 63 | 163 | 1.0 | 5.0 | 0.00 | 0.01 | 0.00 | 44 | 1018.9 |
| 20260503214852 | 63 | 162 | 1.0 | 5.0 | 0.00 | 0.01 | 0.00 | 44 | 1019.0 |
| 20260503214835 | 63 | 162 | 1.0 | 5.0 | 0.00 | 0.01 | 0.00 | 44 | 1019.0 |
| 20260503214347 | 63 | 346 | 1.0 | 5.0 | 0.00 | 0.01 | 0.00 | 44 | 1019.1 |
| 20260503214246 | 63 | 346 | 1.0 | 5.0 | 0.00 | 0.01 | 0.00 | 48 | 1019.0 |
| 20260503214144 | 63 | 317 | 1.0 | 5.0 | 0.00 | 0.01 | 0.00 | 47 | 1019.1 |
| 20260503214033 | 63 | 234 | 1.0 | 5.0 | 0.00 | 0.01 | 0.00 | 49 | 1019.1 |
| 20260503213933 | 63 | 169 | 1.0 | 5.0 | 0.00 | 0.01 | 0.00 | 46 | 1019.1 |
| 20260503213834 | 63 | 159 | 1.0 | 5.0 | 0.00 | 0.01 | 0.00 | 51 | 1019.0 |
| 20260503213734 | 63 | 159 | 1.0 | 5.0 | 0.00 | 0.01 | 0.00 | 45 | 1018.9 |
| 20260503213634 | 63 | 161 | 1.0 | 5.0 | 0.00 | 0.01 | 0.00 | 44 | 1019.1 |
| 20260503213534 | 63 | 159 | 1.0 | 5.0 | 0.00 | 0.01 | 0.00 | 44 | 1019.0 |
| 20260503213432 | 63 | 355 | 1.0 | 5.0 | 0.00 | 0.01 | 0.00 | 45 | 1019.2 |
| 20260503213357 | 63 | 342 | 1.0 | 10.0 | 0.00 | 0.01 | 0.00 | 45 | 1019.1 |
| 20260503213345 | 63 | 338 | 1.0 | 5.0 | 0.00 | 0.01 | 0.00 | 45 | 1019.2 |
| 20260503213128 | 63 | 273 | 1.0 | 10.0 | 0.00 | 0.01 | 0.00 | 47 | 1019.2 |
| 20260503213049 | 63 | 186 | 1.0 | 10.0 | 0.00 | 0.01 | 0.00 | 46 | 1019.2 |
| 20260503213037 | 63 | 219 | 1.0 | 10.0 | 0.00 | 0.01 | 0.00 | 45 | 1019.2 |
| 20260503212850 | 63 | 243 | 1.0 | 10.0 | 0.00 | 0.01 | 0.00 | 49 | 1019.2 |
| 20260503212838 | 63 | 175 | 1.0 | 10.0 | 0.00 | 0.01 | 0.00 | 46 | 1019.2 |
| 20260503212622 | 63 | 332 | 1.0 | 10.0 | 0.00 | 0.01 | 0.00 | 49 | 1019.2 |
| 20260503212513 | 63 | 332 | 1.0 | 10.0 | 0.00 | 0.01 | 0.00 | 45 | 1019.1 |
| 20260503212413 | 63 | 290 | 1.0 | 10.0 | 0.00 | 0.01 | 0.00 | 46 | 1019.2 |
| 20260503212339 | 63 | 170 | 2.0 | 10.0 | 0.00 | 0.01 | 0.00 | 45 | 1019.2 |
| 20260503212327 | 63 | 41 | 2.0 | 10.0 | 0.00 | 0.01 | 0.00 | 48 | 1019.2 |
| 20260503212202 | 63 | 297 | 2.0 | 10.0 | 0.00 | 0.01 | 0.00 | 45 | 1019.3 |
| 20260503212147 | 63 | 167 | 2.0 | 10.0 | 0.00 | 0.01 | 0.00 | 45 | 1019.3 |
| 20260503212024 | 63 | 32 | 2.0 | 10.0 | 0.00 | 0.01 | 0.00 | 44 | 1019.3 |
| 20260503211858 | 63 | 322 | 2.0 | 10.0 | 0.00 | 0.01 | 0.00 | 44 | 1019.4 |
| 20260503211843 | 63 | 297 | 2.0 | 10.0 | 0.00 | 0.01 | 0.00 | 46 | 1019.4 |
| 20260503211721 | 63 | 286 | 2.0 | 10.0 | 0.00 | 0.01 | 0.00 | 45 | 1019.4 |
| 20260503211500 | 63 | 62 | 2.0 | 10.0 | 0.00 | 0.01 | 0.00 | 44 | 1019.5 |
| 20260503211400 | 63 | 271 | 2.0 | 10.0 | 0.00 | 0.01 | 0.00 | 43 | 1019.5 |
| 20260503211329 | 63 | 277 | 2.0 | 9.0 | 0.00 | 0.01 | 0.00 | 44 | 1019.5 |
| 20260503211316 | 63 | 177 | 1.0 | 10.0 | 0.00 | 0.01 | 0.00 | 45 | 1019.5 |
| 20260503211100 | 63 | 100 | 2.0 | 9.0 | 0.00 | 0.01 | 0.00 | 46 | 1019.5 |
| 20260503210952 | 63 | 55 | 2.0 | 10.0 | 0.00 | 0.01 | 0.00 | 48 | 1019.6 |
| 20260503210850 | 63 | 51 | 2.0 | 10.0 | 0.00 | 0.01 | 0.00 | 47 | 1019.6 |
| 20260503210749 | 63 | 51 | 3.0 | 10.0 | 0.00 | 0.01 | 0.00 | 49 | 1019.6 |
| 20260503210651 | 63 | 59 | 2.0 | 10.0 | 0.00 | 0.01 | 0.00 | 46 | 1019.6 |
| 20260503210550 | 63 | 37 | 2.0 | 10.0 | 0.00 | 0.01 | 0.00 | 46 | 1019.6 |
| 20260503210444 | 63 | 163 | 2.0 | 10.0 | 0.00 | 0.01 | 0.00 | 46 | 1019.6 |
| 20260503210353 | 63 | 269 | 1.0 | 7.0 | 0.00 | 0.01 | 0.00 | 45 | 1019.6 |
| 20260503210345 | 63 | 179 | 2.0 | 10.0 | 0.00 | 0.01 | 0.00 | 43 | 1019.6 |
| 20260503210338 | 63 | 224 | 1.0 | 7.0 | 0.00 | 0.01 | 0.00 | 44 | 1019.6 |
| 20260503210333 | 63 | 176 | 2.0 | 10.0 | 0.00 | 0.01 | 0.00 | 45 | 1019.6 |
| 20260503210317 | 63 | 207 | 2.0 | 10.0 | 0.00 | 0.01 | 0.00 | 43 | 1019.7 |
| 20260503210303 | 63 | 198 | 2.0 | 10.0 | 0.00 | 0.01 | 0.00 | 42 | 1019.6 |
| 20260503210023 | 63 | 134 | 1.0 | 8.0 | 0.00 | 0.01 | 0.00 | 47 | 1019.6 |
| 20260503205859 | 63 | 188 | 1.0 | 7.0 | 0.00 | 0.01 | 0.00 | 45 | 1019.6 |
| 20260503205843 | 63 | 174 | 1.0 | 6.0 | 0.00 | 0.01 | 0.00 | 48 | 1019.6 |
| 20260503205732 | 63 | 188 | 1.0 | 7.0 | 0.00 | 0.01 | 0.00 | 43 | 1019.6 |
| 20260503205717 | 63 | 269 | 1.0 | 6.0 | 0.00 | 0.01 | 0.00 | 48 | 1019.6 |
| 20260503205443 | 63 | 190 | 2.0 | 7.0 | 0.00 | 0.01 | 0.00 | 46 | 1019.7 |
| 20260503205432 | 63 | 269 | 1.0 | 7.0 | 0.00 | 0.01 | 0.00 | 44 | 1019.7 |
| 20260503205413 | 63 | 323 | 1.0 | 7.0 | 0.00 | 0.01 | 0.00 | 44 | 1019.6 |
| 20260503205020 | 63 | 309 | 2.0 | 7.0 | 0.00 | 0.01 | 0.00 | 44 | 1019.8 |
| 20260503205003 | 63 | 293 | 2.0 | 7.0 | 0.00 | 0.01 | 0.00 | 46 | 1019.6 |
| 20260503204840 | 63 | 217 | 1.0 | 7.0 | 0.00 | 0.01 | 0.00 | 44 | 1019.6 |
| 20260503204624 | 63 | 296 | 2.0 | 7.0 | 0.00 | 0.01 | 0.00 | 43 | 1019.7 |
| 20260503204522 | 63 | 309 | 2.0 | 7.0 | 0.00 | 0.01 | 0.00 | 42 | 1019.7 |
| 20260503204416 | 63 | 355 | 2.0 | 8.0 | 0.00 | 0.01 | 0.00 | 44 | 1019.7 |
| 20260503204315 | 63 | 300 | 2.0 | 8.0 | 0.00 | 0.01 | 0.00 | 44 | 1019.7 |
| 20260503204216 | 63 | 342 | 2.0 | 8.0 | 0.00 | 0.01 | 0.00 | 43 | 1019.7 |
| 20260503204116 | 63 | 300 | 2.0 | 8.0 | 0.00 | 0.01 | 0.00 | 41 | 1019.7 |
| 20260503204016 | 63 | 300 | 2.0 | 8.0 | 0.00 | 0.01 | 0.00 | 42 | 1019.6 |
| 20260503203911 | 64 | 282 | 2.0 | 8.0 | 0.00 | 0.01 | 0.00 | 41 | 1019.6 |
| 20260503203809 | 64 | 171 | 2.0 | 8.0 | 0.00 | 0.01 | 0.00 | 42 | 1019.7 |
| 20260503203709 | 64 | 206 | 2.0 | 8.0 | 0.00 | 0.01 | 0.00 | 42 | 1019.7 |
| 20260503203634 | 64 | 165 | 1.0 | 7.0 | 0.00 | 0.01 | 0.00 | 46 | 1019.7 |
| 20260503203622 | 64 | 200 | 1.0 | 8.0 | 0.00 | 0.01 | 0.00 | 43 | 1019.8 |
| 20260503203402 | 64 | 334 | 1.0 | 7.0 | 0.00 | 0.01 | 0.00 | 45 | 1019.7 |
| 20260503203259 | 64 | 331 | 2.0 | 7.0 | 0.00 | 0.01 | 0.00 | 45 | 1019.7 |
| 20260503203200 | 64 | 326 | 2.0 | 7.0 | 0.00 | 0.01 | 0.00 | 42 | 1019.8 |
| 20260503203100 | 64 | 173 | 2.0 | 7.0 | 0.00 | 0.01 | 0.00 | 41 | 1019.7 |
| 20260503203000 | 64 | 190 | 2.0 | 7.0 | 0.00 | 0.01 | 0.00 | 45 | 1019.8 |
| 20260503202924 | 64 | 204 | 2.0 | 7.0 | 0.00 | 0.01 | 0.00 | 45 | 1019.9 |
| 20260503202912 | 64 | 199 | 2.0 | 7.0 | 0.00 | 0.01 | 0.00 | 45 | 1019.8 |
| 20260503202656 | 64 | 297 | 2.0 | 7.0 | 0.00 | 0.01 | 0.00 | 44 | 1019.8 |
| 20260503202556 | 64 | 312 | 2.0 | 7.0 | 0.00 | 0.01 | 0.00 | 43 | 1019.9 |
| 20260503202454 | 64 | 263 | 2.0 | 7.0 | 0.00 | 0.01 | 0.00 | 42 | 1019.8 |
| 20260503202345 | 64 | 321 | 2.0 | 7.0 | 0.00 | 0.01 | 0.00 | 44 | 1019.8 |
| 20260503202246 | 64 | 213 | 2.0 | 7.0 | 0.00 | 0.01 | 0.00 | 47 | 1019.9 |
| 20260503202145 | 64 | 230 | 1.0 | 6.0 | 0.00 | 0.01 | 0.00 | 47 | 1020.0 |
| 20260503202046 | 64 | 233 | 1.0 | 6.0 | 0.00 | 0.01 | 0.00 | 45 | 1019.9 |
| 20260503202004 | 64 | 305 | 1.0 | 5.0 | 0.00 | 0.01 | 0.00 | 49 | 1020.1 |
| 20260503201954 | 64 | 227 | 1.0 | 5.0 | 0.00 | 0.01 | 0.00 | 45 | 1019.9 |
| 20260503201737 | 64 | 313 | 1.0 | 5.0 | 0.00 | 0.01 | 0.00 | 49 | 1020.0 |
| 20260503201637 | 64 | 355 | 1.0 | 5.0 | 0.00 | 0.01 | 0.00 | 56 | 1020.0 |
| 20260503201538 | 64 | 355 | 2.0 | 6.0 | 0.00 | 0.01 | 0.00 | 50 | 1020.1 |
| 20260503201438 | 63 | 315 | 2.0 | 6.0 | 0.00 | 0.01 | 0.00 | 46 | 1020.1 |
| 20260503201335 | 64 | 310 | 2.0 | 6.0 | 0.00 | 0.01 | 0.00 | 45 | 1020.1 |
| 20260503201303 | 64 | 17 | 2.0 | 9.0 | 0.00 | 0.01 | 0.00 | 50 | 1020.3 |
| 20260503201251 | 64 | 333 | 2.0 | 8.0 | 0.00 | 0.01 | 0.00 | 47 | 1020.2 |
| 20260503201102 | 64 | 323 | 2.0 | 9.0 | 0.00 | 0.01 | 0.00 | 49 | 1020.3 |
| 20260503201050 | 64 | 336 | 2.0 | 9.0 | 0.00 | 0.01 | 0.00 | 48 | 1020.2 |
| 20260503200823 | 64 | 344 | 2.0 | 9.0 | 0.00 | 0.01 | 0.00 | 47 | 1020.3 |
| 20260503200724 | 64 | 147 | 3.0 | 9.0 | 0.00 | 0.01 | 0.00 | 48 | 1020.3 |
| 20260503200623 | 64 | 175 | 2.0 | 9.0 | 0.00 | 0.01 | 0.00 | 45 | 1020.3 |
| 20260503200523 | 64 | 217 | 2.0 | 9.0 | 0.00 | 0.01 | 0.00 | 43 | 1020.4 |
| 20260503200449 | 64 | 221 | 2.0 | 9.0 | 0.00 | 0.01 | 0.00 | 45 | 1020.4 |
| 20260503200437 | 64 | 207 | 2.0 | 9.0 | 0.00 | 0.01 | 0.00 | 46 | 1020.4 |
| 20260503200224 | 64 | 189 | 2.0 | 9.0 | 0.00 | 0.01 | 0.00 | 45 | 1020.4 |
| 20260503200124 | 64 | 235 | 2.0 | 7.0 | 0.00 | 0.01 | 0.00 | 47 | 1020.4 |
| 20260503200024 | 64 | 153 | 2.0 | 7.0 | 0.00 | 0.01 | 0.00 | 46 | 1020.4 |
| 20260503195923 | 64 | 218 | 2.0 | 7.0 | 0.00 | 0.01 | 0.00 | 44 | 1020.4 |
| 20260503195823 | 64 | 194 | 2.0 | 7.0 | 0.00 | 0.01 | 0.00 | 45 | 1020.4 |
| 20260503195815 | 64 | 176 | 2.0 | 7.0 | 0.00 | 0.01 | 0.00 | 44 | 1020.3 |
| 20260503195811 | 64 | 347 | 2.0 | 7.0 | 0.00 | 0.01 | 0.00 | 43 | 1020.4 |
| 20260503195756 | 64 | 277 | 2.0 | 7.0 | 0.00 | 0.01 | 0.00 | 47 | 1020.4 |
| 20260503195423 | 64 | 9 | 2.0 | 7.0 | 0.00 | 0.01 | 0.00 | 50 | 1020.5 |
| 20260503195323 | 64 | 332 | 2.0 | 7.0 | 0.00 | 0.01 | 0.00 | 50 | 1020.5 |
| 20260503195224 | 64 | 327 | 2.0 | 7.0 | 0.00 | 0.01 | 0.00 | 47 | 1020.5 |
| 20260503195119 | 64 | 327 | 2.0 | 7.0 | 0.00 | 0.01 | 0.00 | 45 | 1020.4 |
| 20260503195019 | 64 | 329 | 2.0 | 7.0 | 0.00 | 0.01 | 0.00 | 44 | 1020.4 |
| 20260503194920 | 63 | 110 | 2.0 | 5.0 | 0.00 | 0.01 | 0.00 | 47 | 1020.4 |
| 20260503194819 | 63 | 138 | 2.0 | 5.0 | 0.00 | 0.01 | 0.00 | 42 | 1020.4 |
| 20260503194719 | 63 | 315 | 2.0 | 6.0 | 0.00 | 0.01 | 0.00 | 44 | 1020.5 |
| 20260503194619 | 63 | 336 | 2.0 | 6.0 | 0.00 | 0.01 | 0.00 | 43 | 1020.4 |
| 20260503194548 | 64 | 30 | 2.0 | 6.0 | 0.00 | 0.01 | 0.00 | 45 | 1020.5 |
| 20260503194535 | 63 | 345 | 2.0 | 6.0 | 0.00 | 0.01 | 0.00 | 41 | 1020.4 |
| 20260503194345 | 63 | 28 | 2.0 | 6.0 | 0.00 | 0.01 | 0.00 | 44 | 1020.5 |
| 20260503194335 | 64 | 355 | 2.0 | 6.0 | 0.00 | 0.01 | 0.00 | 46 | 1020.5 |
| 20260503194120 | 63 | 198 | 2.0 | 6.0 | 0.00 | 0.01 | 0.00 | 40 | 1020.6 |
| 20260503194045 | 63 | 223 | 2.0 | 7.0 | 0.00 | 0.01 | 0.00 | 42 | 1020.6 |
| 20260503194035 | 63 | 194 | 2.0 | 7.0 | 0.00 | 0.01 | 0.00 | 40 | 1020.6 |
| 20260503193840 | 64 | 45 | 3.0 | 7.0 | 0.00 | 0.01 | 0.00 | 45 | 1020.7 |
| 20260503193836 | 63 | 202 | 3.0 | 9.0 | 0.00 | 0.01 | 0.00 | 44 | 1020.7 |
| 20260503193825 | 63 | 173 | 2.0 | 7.0 | 0.00 | 0.01 | 0.00 | 41 | 1020.7 |
| 20260503193806 | 63 | 253 | 2.0 | 7.0 | 0.00 | 0.01 | 0.00 | 43 | 1020.7 |
| 20260503193650 | 63 | 123 | 3.0 | 9.0 | 0.00 | 0.01 | 0.00 | 43 | 1020.7 |
| 20260503193638 | 64 | 296 | 2.0 | 7.0 | 0.00 | 0.01 | 0.00 | 44 | 1020.7 |
| 20260503193452 | 63 | 160 | 3.0 | 9.0 | 0.00 | 0.01 | 0.00 | 48 | 1020.7 |
| 20260503193257 | 63 | 150 | 3.0 | 9.0 | 0.00 | 0.01 | 0.00 | 45 | 1020.7 |
| 20260503193129 | 63 | 331 | 3.0 | 9.0 | 0.00 | 0.01 | 0.00 | 43 | 1020.7 |
| 20260503192953 | 63 | 311 | 3.0 | 9.0 | 0.00 | 0.01 | 0.00 | 44 | 1020.8 |
| 20260503192936 | 63 | 186 | 3.0 | 9.0 | 0.00 | 0.01 | 0.00 | 47 | 1020.8 |
| 20260503192706 | 63 | 325 | 3.0 | 9.0 | 0.00 | 0.01 | 0.00 | 45 | 1020.8 |
| 20260503192608 | 63 | 323 | 2.0 | 9.0 | 0.00 | 0.01 | 0.00 | 45 | 1020.7 |
| 20260503192558 | 63 | 111 | 3.0 | 9.0 | 0.00 | 0.01 | 0.00 | 46 | 1020.9 |
| 20260503192542 | 63 | 333 | 2.0 | 9.0 | 0.00 | 0.01 | 0.00 | 44 | 1020.9 |
| 20260503192427 | 63 | 342 | 2.0 | 8.0 | 0.00 | 0.01 | 0.00 | 45 | 1020.9 |
| 20260503192415 | 63 | 331 | 2.0 | 9.0 | 0.00 | 0.01 | 0.00 | 47 | 1020.8 |
| 20260503192401 | 63 | 5 | 2.0 | 8.0 | 0.00 | 0.01 | 0.00 | 48 | 1020.9 |
| 20260503192237 | 63 | 355 | 2.0 | 8.0 | 0.00 | 0.01 | 0.00 | 44 | 1020.9 |
| 20260503192107 | 63 | 338 | 3.0 | 8.0 | 0.00 | 0.01 | 0.00 | 44 | 1021.0 |
| 20260503191944 | 63 | 292 | 3.0 | 9.0 | 0.00 | 0.01 | 0.00 | 45 | 1021.0 |
| 20260503191821 | 63 | 340 | 3.0 | 9.0 | 0.00 | 0.01 | 0.00 | 45 | 1021.0 |
| 20260503191603 | 63 | 137 | 3.0 | 9.0 | 0.00 | 0.01 | 0.00 | 45 | 1021.0 |
| 20260503191553 | 63 | 204 | 3.0 | 9.0 | 0.00 | 0.01 | 0.00 | 44 | 1021.0 |
| 20260503191538 | 63 | 149 | 3.0 | 9.0 | 0.00 | 0.01 | 0.00 | 44 | 1021.0 |
| 20260503191414 | 63 | 217 | 3.0 | 9.0 | 0.00 | 0.01 | 0.00 | 46 | 1021.0 |
| 20260503191228 | 63 | 180 | 2.0 | 9.0 | 0.00 | 0.01 | 0.00 | 43 | 1021.0 |
| 20260503191215 | 63 | 149 | 3.0 | 9.0 | 0.00 | 0.01 | 0.00 | 44 | 1020.9 |
| 20260503190959 | 63 | 214 | 2.0 | 9.0 | 0.00 | 0.01 | 0.00 | 41 | 1021.0 |
| 20260503190928 | 64 | 204 | 2.0 | 9.0 | 0.00 | 0.01 | 0.00 | 47 | 1021.1 |
| 20260503190916 | 64 | 178 | 2.0 | 9.0 | 0.00 | 0.01 | 0.00 | 43 | 1021.0 |
| 20260503190650 | 64 | 84 | 1.0 | 9.0 | 0.00 | 0.01 | 0.00 | 49 | 1021.0 |
| 20260503190549 | 63 | 171 | 1.0 | 9.0 | 0.00 | 0.01 | 0.00 | 52 | 1021.2 |
| 20260503190449 | 63 | 170 | 2.0 | 11.0 | 0.00 | 0.01 | 0.00 | 50 | 1021.2 |
| 20260503190348 | 62 | 355 | 2.0 | 11.0 | 0.00 | 0.01 | 0.00 | 45 | 1021.2 |
| 20260503190248 | 62 | 345 | 2.0 | 11.0 | 0.00 | 0.01 | 0.00 | 43 | 1021.2 |
| 20260503190148 | 62 | 236 | 2.0 | 11.0 | 0.00 | 0.01 | 0.00 | 43 | 1021.2 |
| 20260503190048 | 62 | 5 | 2.0 | 11.0 | 0.00 | 0.01 | 0.00 | 43 | 1021.2 |
| 20260503185947 | 63 | 68 | 2.0 | 11.0 | 0.00 | 0.01 | 0.00 | 44 | 1021.4 |
| 20260503185848 | 63 | 153 | 3.0 | 11.0 | 0.00 | 0.01 | 0.00 | 47 | 1021.2 |
| 20260503185747 | 62 | 149 | 3.0 | 11.0 | 0.00 | 0.01 | 0.00 | 47 | 1021.2 |
| 20260503185648 | 62 | 185 | 3.0 | 11.0 | 0.00 | 0.01 | 0.00 | 45 | 1021.2 |
| 20260503185545 | 62 | 194 | 2.0 | 11.0 | 0.00 | 0.01 | 0.00 | 42 | 1021.1 |
| 20260503185446 | 62 | 298 | 2.0 | 10.0 | 0.00 | 0.01 | 0.00 | 45 | 1021.2 |
| 20260503185346 | 62 | 342 | 2.0 | 10.0 | 0.00 | 0.01 | 0.00 | 44 | 1021.2 |
| 20260503185245 | 63 | 355 | 2.0 | 10.0 | 0.00 | 0.01 | 0.00 | 43 | 1021.4 |
| 20260503185145 | 63 | 341 | 2.0 | 10.0 | 0.00 | 0.01 | 0.00 | 44 | 1021.4 |
| 20260503185045 | 63 | 305 | 2.0 | 10.0 | 0.00 | 0.01 | 0.00 | 45 | 1021.4 |
| 20260503184944 | 63 | 340 | 2.0 | 10.0 | 0.00 | 0.01 | 0.00 | 47 | 1021.4 |
| 20260503184913 | 63 | 32 | 2.0 | 10.0 | 0.00 | 0.01 | 0.00 | 47 | 1021.5 |
| 20260503184902 | 63 | 302 | 2.0 | 10.0 | 0.00 | 0.01 | 0.00 | 45 | 1021.2 |
| 20260503184646 | 63 | 252 | 2.0 | 10.0 | 0.00 | 0.01 | 0.00 | 46 | 1021.5 |
| 20260503184545 | 62 | 355 | 3.0 | 10.0 | 0.00 | 0.01 | 0.00 | 47 | 1021.5 |
| 20260503184445 | 62 | 301 | 3.0 | 10.0 | 0.00 | 0.01 | 0.00 | 42 | 1021.5 |
| 20260503184345 | 63 | 331 | 3.0 | 10.0 | 0.00 | 0.01 | 0.00 | 42 | 1021.6 |
| 20260503184247 | 63 | 234 | 3.0 | 10.0 | 0.00 | 0.01 | 0.00 | 51 | 1021.5 |
| 20260503184241 | 62 | 191 | 3.0 | 10.0 | 0.00 | 0.01 | 0.00 | 46 | 1021.5 |
| 20260503184225 | 63 | 321 | 3.0 | 10.0 | 0.00 | 0.01 | 0.00 | 49 | 1021.5 |
| 20260503184101 | 62 | 213 | 3.0 | 10.0 | 0.00 | 0.01 | 0.00 | 46 | 1021.5 |
| 20260503183845 | 62 | 218 | 3.0 | 10.0 | 0.00 | 0.01 | 0.00 | 45 | 1021.6 |
| 20260503183745 | 62 | 198 | 3.0 | 10.0 | 0.00 | 0.01 | 0.00 | 44 | 1021.5 |
| 20260503183646 | 62 | 181 | 3.0 | 10.0 | 0.00 | 0.01 | 0.00 | 44 | 1021.5 |
| 20260503183545 | 62 | 157 | 2.0 | 10.0 | 0.00 | 0.01 | 0.00 | 45 | 1021.6 |
| 20260503183446 | 62 | 188 | 2.0 | 9.0 | 0.00 | 0.01 | 0.00 | 47 | 1021.6 |
| 20260503183344 | 62 | 217 | 2.0 | 6.0 | 0.00 | 0.01 | 0.00 | 47 | 1021.7 |
| 20260503183245 | 62 | 346 | 2.0 | 6.0 | 0.00 | 0.01 | 0.00 | 45 | 1021.6 |
| 20260503183145 | 62 | 98 | 2.0 | 8.0 | 0.00 | 0.01 | 0.00 | 44 | 1021.7 |
| 20260503183045 | 62 | 198 | 1.0 | 8.0 | 0.00 | 0.01 | 0.00 | 48 | 1021.6 |
| 20260503182946 | 62 | 192 | 1.0 | 8.0 | 0.00 | 0.01 | 0.00 | 50 | 1021.7 |
| 20260503182842 | 62 | 0 | 1.0 | 8.0 | 0.00 | 0.01 | 0.00 | 51 | 1021.7 |
| 20260503182741 | 62 | 10 | 1.0 | 8.0 | 0.00 | 0.01 | 0.00 | 44 | 1021.7 |
| 20260503182710 | 62 | 15 | 1.0 | 8.0 | 0.00 | 0.01 | 0.00 | 46 | 1021.7 |
| 20260503182658 | 62 | 313 | 1.0 | 8.0 | 0.00 | 0.01 | 0.00 | 51 | 1021.7 |
| 20260503182442 | 62 | 15 | 1.0 | 8.0 | 0.00 | 0.01 | 0.00 | 50 | 1021.7 |
| 20260503182342 | 62 | 16 | 1.0 | 8.0 | 0.00 | 0.01 | 0.00 | 51 | 1021.7 |
| 20260503182241 | 62 | 16 | 2.0 | 8.0 | 0.00 | 0.01 | 0.00 | 51 | 1021.8 |
| 20260503182141 | 62 | 17 | 2.0 | 9.0 | 0.00 | 0.01 | 0.00 | 47 | 1021.8 |
| 20260503182042 | 62 | 17 | 2.0 | 9.0 | 0.00 | 0.01 | 0.00 | 54 | 1021.8 |
| 20260503181941 | 61 | 17 | 2.0 | 9.0 | 0.00 | 0.01 | 0.00 | 48 | 1021.7 |
| 20260503181909 | 61 | 153 | 3.0 | 9.0 | 0.00 | 0.01 | 0.00 | 45 | 1021.7 |
| 20260503181857 | 61 | 112 | 3.0 | 9.0 | 0.00 | 0.01 | 0.00 | 50 | 1021.8 |
| 20260503181640 | 61 | 156 | 3.0 | 9.0 | 0.00 | 0.01 | 0.00 | 43 | 1021.8 |
| 20260503181541 | 61 | 175 | 3.0 | 9.0 | 0.00 | 0.01 | 0.00 | 44 | 1021.8 |
| 20260503181441 | 61 | 160 | 2.0 | 9.0 | 0.00 | 0.01 | 0.00 | 44 | 1021.8 |
| 20260503181341 | 61 | 229 | 2.0 | 9.0 | 0.00 | 0.01 | 0.00 | 47 | 1021.8 |
| 20260503181242 | 61 | 192 | 2.0 | 9.0 | 0.00 | 0.01 | 0.00 | 46 | 1021.9 |
| 20260503181141 | 61 | 162 | 1.0 | 6.0 | 0.00 | 0.01 | 0.00 | 45 | 1021.9 |
| 20260503181040 | 61 | 163 | 1.0 | 6.0 | 0.00 | 0.01 | 0.00 | 48 | 1021.8 |
| 20260503180941 | 62 | 223 | 1.0 | 6.0 | 0.00 | 0.01 | 0.00 | 45 | 1021.9 |
| 20260503180842 | 61 | 201 | 1.0 | 6.0 | 0.00 | 0.01 | 0.00 | 47 | 1021.9 |
| 20260503180742 | 61 | 203 | 1.0 | 6.0 | 0.00 | 0.01 | 0.00 | 50 | 1021.8 |
| 20260503180641 | 61 | 194 | 1.0 | 6.0 | 0.00 | 0.01 | 0.00 | 47 | 1021.9 |
| 20260503180607 | 60 | 231 | 1.0 | 6.0 | 0.00 | 0.01 | 0.00 | 46 | 1021.9 |
| 20260503180556 | 61 | 200 | 1.0 | 6.0 | 0.00 | 0.01 | 0.00 | 48 | 1021.7 |
| 20260503180341 | 60 | 339 | 1.0 | 6.0 | 0.00 | 0.01 | 0.00 | 46 | 1021.9 |
| 20260503180242 | 60 | 95 | 1.0 | 6.0 | 0.00 | 0.01 | 0.00 | 48 | 1021.9 |
| 20260503180141 | 60 | 94 | 1.0 | 6.0 | 0.00 | 0.01 | 0.00 | 46 | 1021.9 |
| 20260503180040 | 60 | 130 | 1.0 | 6.0 | 0.00 | 0.01 | 0.00 | 49 | 1021.9 |
| 20260503180012 | 59 | 131 | 1.0 | 6.0 | 0.00 | 0.01 | 0.00 | 45 | 1021.9 |
| 20260503175957 | 59 | 130 | 1.0 | 6.0 | 0.00 | 0.01 | 0.00 | 46 | 1021.9 |
| 20260503175741 | 60 | 131 | 1.0 | 6.0 | 0.00 | 0.01 | 0.00 | 43 | 1021.9 |
| 20260503175730 | 60 | 314 | 1.0 | 8.0 | 0.00 | 0.01 | 0.00 | 44 | 1022.0 |
| 20260503175726 | 60 | 314 | 1.0 | 8.0 | 0.00 | 0.01 | 0.00 | 46 | 1022.0 |
| 20260503175711 | 60 | 132 | 1.0 | 6.0 | 0.00 | 0.01 | 0.00 | 45 | 1022.0 |
| 20260503175554 | 60 | 305 | 1.0 | 8.0 | 0.00 | 0.01 | 0.00 | 51 | 1022.1 |
| 20260503175544 | 60 | 119 | 1.0 | 8.0 | 0.00 | 0.01 | 0.00 | 45 | 1022.0 |
| 20260503175524 | 60 | 151 | 1.0 | 8.0 | 0.00 | 0.01 | 0.00 | 49 | 1022.1 |
| 20260503175038 | 60 | 197 | 1.0 | 8.0 | 0.00 | 0.01 | 0.00 | 48 | 1022.2 |
| 20260503175005 | 60 | 126 | 1.0 | 8.0 | 0.00 | 0.01 | 0.00 | 49 | 1022.1 |
| 20260503174951 | 60 | 149 | 1.0 | 8.0 | 0.00 | 0.01 | 0.00 | 46 | 1022.1 |
| 20260503174733 | 60 | 175 | 1.0 | 8.0 | 0.00 | 0.01 | 0.00 | 47 | 1022.2 |
| 20260503174701 | 60 | 351 | 2.0 | 8.0 | 0.00 | 0.01 | 0.00 | 48 | 1022.2 |
| 20260503174648 | 60 | 355 | 2.0 | 8.0 | 0.00 | 0.01 | 0.00 | 49 | 1022.2 |
| 20260503174432 | 60 | 298 | 2.0 | 8.0 | 0.00 | 0.01 | 0.00 | 51 | 1022.3 |
| 20260503174333 | 60 | 311 | 2.0 | 8.0 | 0.00 | 0.01 | 0.00 | 55 | 1022.2 |
| 20260503174231 | 60 | 23 | 2.0 | 8.0 | 0.00 | 0.01 | 0.00 | 59 | 1022.3 |
| 20260503174132 | 59 | 33 | 2.0 | 8.0 | 0.00 | 0.01 | 0.00 | 51 | 1022.2 |
| 20260503174029 | 59 | 33 | 2.0 | 8.0 | 0.00 | 0.01 | 0.00 | 52 | 1022.2 |
| 20260503173927 | 59 | 33 | 2.0 | 8.0 | 0.00 | 0.01 | 0.00 | 50 | 1022.2 |
| 20260503173827 | 59 | 33 | 2.0 | 8.0 | 0.00 | 0.01 | 0.00 | 48 | 1022.2 |
| 20260503173754 | 59 | 355 | 1.0 | 8.0 | 0.00 | 0.01 | 0.00 | 50 | 1022.2 |
| 20260503173742 | 59 | 355 | 2.0 | 8.0 | 0.00 | 0.01 | 0.00 | 49 | 1022.2 |
| 20260503173525 | 60 | 291 | 1.0 | 7.0 | 0.00 | 0.01 | 0.00 | 48 | 1022.3 |
| 20260503173425 | 60 | 291 | 1.0 | 3.0 | 0.00 | 0.01 | 0.00 | 48 | 1022.3 |
| 20260503173325 | 60 | 290 | 1.0 | 3.0 | 0.00 | 0.01 | 0.00 | 51 | 1022.3 |
| 20260503173223 | 60 | 196 | 1.0 | 3.0 | 0.00 | 0.01 | 0.00 | 51 | 1022.3 |
| 20260503173122 | 60 | 215 | 1.0 | 3.0 | 0.00 | 0.01 | 0.00 | 53 | 1022.3 |
| 20260503173020 | 60 | 207 | 1.0 | 3.0 | 0.00 | 0.01 | 0.00 | 57 | 1022.5 |
| 20260503172921 | 59 | 89 | 1.0 | 3.0 | 0.00 | 0.01 | 0.00 | 55 | 1022.4 |
| 20260503172821 | 59 | 106 | 1.0 | 6.0 | 0.00 | 0.01 | 0.00 | 52 | 1022.4 |
| 20260503172720 | 59 | 106 | 1.0 | 6.0 | 0.00 | 0.01 | 0.00 | 52 | 1022.4 |
| 20260503172646 | 58 | 289 | 2.0 | 6.0 | 0.00 | 0.01 | 0.00 | 54 | 1022.4 |
| 20260503172641 | 58 | 336 | 1.0 | 6.0 | 0.00 | 0.01 | 0.00 | 55 | 1022.4 |
| 20260503172631 | 59 | 229 | 1.0 | 6.0 | 0.00 | 0.01 | 0.00 | 56 | 1022.4 |
| 20260503172613 | 59 | 336 | 1.0 | 6.0 | 0.00 | 0.01 | 0.00 | 52 | 1022.5 |
| 20260503172336 | 58 | 311 | 2.0 | 6.0 | 0.00 | 0.01 | 0.00 | 53 | 1022.4 |
| 20260503172121 | 58 | 288 | 2.0 | 6.0 | 0.00 | 0.01 | 0.00 | 52 | 1022.3 |
| 20260503172021 | 58 | 288 | 2.0 | 6.0 | 0.00 | 0.01 | 0.00 | 52 | 1022.5 |
| 20260503171921 | 58 | 294 | 2.0 | 6.0 | 0.00 | 0.01 | 0.00 | 56 | 1022.4 |
| 20260503171821 | 58 | 5 | 2.0 | 6.0 | 0.00 | 0.01 | 0.00 | 51 | 1022.4 |
| 20260503171721 | 58 | 5 | 2.0 | 6.0 | 0.00 | 0.01 | 0.00 | 52 | 1022.5 |
| 20260503171617 | 58 | 57 | 1.0 | 6.0 | 0.00 | 0.01 | 0.00 | 50 | 1022.4 |
| 20260503171542 | 58 | 210 | 1.0 | 6.0 | 0.00 | 0.01 | 0.00 | 51 | 1022.4 |
| 20260503171529 | 58 | 207 | 1.0 | 6.0 | 0.00 | 0.01 | 0.00 | 51 | 1022.4 |
| 20260503171316 | 58 | 175 | 1.0 | 5.0 | 0.00 | 0.01 | 0.00 | 55 | 1022.4 |
| 20260503171215 | 58 | 321 | 1.0 | 5.0 | 0.00 | 0.01 | 0.00 | 51 | 1022.5 |
| 20260503171111 | 59 | 157 | 1.0 | 5.0 | 0.00 | 0.01 | 0.00 | 54 | 1022.5 |
| 20260503171040 | 59 | 184 | 1.0 | 5.0 | 0.00 | 0.01 | 0.00 | 54 | 1022.5 |
| 20260503171027 | 59 | 227 | 1.0 | 5.0 | 0.00 | 0.01 | 0.00 | 52 | 1022.5 |
| 20260503170811 | 59 | 171 | 1.0 | 5.0 | 0.00 | 0.01 | 0.00 | 54 | 1022.5 |
| 20260503170709 | 59 | 171 | 1.0 | 5.0 | 0.00 | 0.01 | 0.00 | 56 | 1022.5 |
| 20260503170604 | 59 | 170 | 1.0 | 5.0 | 0.00 | 0.01 | 0.00 | 56 | 1022.5 |
| 20260503170528 | 58 | 202 | 1.0 | 4.0 | 0.00 | 0.01 | 0.00 | 56 | 1022.5 |
| 20260503170518 | 58 | 175 | 1.0 | 5.0 | 0.00 | 0.01 | 0.00 | 56 | 1022.5 |
| 20260503170301 | 58 | 200 | 1.0 | 4.0 | 0.00 | 0.01 | 0.00 | 51 | 1022.5 |
| 20260503170159 | 58 | 40 | 1.0 | 4.0 | 0.00 | 0.01 | 0.00 | 54 | 1022.6 |
| 20260503160152 | 54 | 182 | 1.0 | 5.0 | 0.00 | 0.01 | 0.00 | 58 | 1023.2 |
| 20260503150942 | 52 | 19 | 0.0 | 4.0 | 0.00 | 0.01 | 0.00 | 64 | 1023.4 |
| 20260503150839 | 52 | 19 | 1.0 | 4.0 | 0.00 | 0.01 | 0.00 | 61 | 1023.5 |
| 20260503150737 | 52 | 19 | 1.0 | 4.0 | 0.00 | 0.01 | 0.00 | 65 | 1023.4 |
| 20260503150636 | 52 | 19 | 1.0 | 4.0 | 0.00 | 0.01 | 0.00 | 65 | 1023.4 |
| 20260503150534 | 52 | 20 | 1.0 | 4.0 | 0.00 | 0.01 | 0.00 | 64 | 1023.4 |
| 20260503150434 | 52 | 20 | 1.0 | 4.0 | 0.00 | 0.01 | 0.00 | 63 | 1023.5 |
| 20260503150358 | 51 | 18 | 1.0 | 4.0 | 0.00 | 0.01 | 0.00 | 58 | 1023.4 |
| 20260503150348 | 51 | 19 | 1.0 | 4.0 | 0.00 | 0.01 | 0.00 | 60 | 1023.4 |
| 20260503150121 | 51 | 16 | 1.0 | 4.0 | 0.00 | 0.01 | 0.00 | 58 | 1023.4 |
| 20260503140234 | 48 | 164 | 0.0 | 3.0 | 0.00 | 0.01 | 0.00 | 89 | 1023.2 |
| 20260503140134 | 48 | 165 | 0.0 | 3.0 | 0.00 | 0.01 | 0.00 | 90 | 1023.3 |
| 20260503131356 | 44 | 134 | 0.0 | 3.0 | 0.00 | 0.01 | 0.00 | 95 | 1023.1 |
| 20260503131140 | 44 | 134 | 0.0 | 3.0 | 0.00 | 0.01 | 0.00 | 95 | 1023.2 |
| 20260503131106 | 44 | 133 | 0.0 | 3.0 | 0.00 | 0.01 | 0.00 | 95 | 1023.2 |
| 20260503131055 | 44 | 133 | 0.0 | 3.0 | 0.00 | 0.01 | 0.00 | 95 | 1023.2 |
| 20260503130835 | 44 | 133 | 0.0 | 3.0 | 0.00 | 0.01 | 0.00 | 95 | 1023.2 |
| 20260503130732 | 44 | 133 | 0.0 | 3.0 | 0.00 | 0.01 | 0.00 | 95 | 1023.2 |
| 20260503130633 | 44 | 133 | 0.0 | 3.0 | 0.00 | 0.01 | 0.00 | 95 | 1023.1 |
| 20260503130558 | 44 | 133 | 0.0 | 3.0 | 0.00 | 0.01 | 0.00 | 95 | 1023.2 |
| 20260503130547 | 44 | 133 | 0.0 | 3.0 | 0.00 | 0.01 | 0.00 | 95 | 1023.2 |
| 20260503130333 | 44 | 132 | 0.0 | 1.0 | 0.00 | 0.01 | 0.00 | 95 | 1023.2 |
| 20260503130256 | 43 | 132 | 0.0 | 3.0 | 0.00 | 0.01 | 0.00 | 95 | 1023.3 |
| 20260503130246 | 43 | 132 | 0.0 | 3.0 | 0.00 | 0.01 | 0.00 | 95 | 1023.2 |
| 20260503120123 | 40 | 128 | 0.0 | 1.0 | 0.00 | 0.01 | 0.00 | 94 | 1022.8 |
| 20260503110739 | 40 | 328 | 0.0 | 1.0 | 0.00 | 0.01 | 0.00 | 94 | 1022.1 |
| 20260503110639 | 40 | 328 | 0.0 | 1.0 | 0.00 | 0.01 | 0.00 | 94 | 1022.1 |
| 20260503110600 | 40 | 328 | 0.0 | 1.0 | 0.00 | 0.01 | 0.00 | 94 | 1022.1 |
| 20260503110550 | 40 | 328 | 0.0 | 1.0 | 0.00 | 0.01 | 0.00 | 94 | 1022.1 |
| 20260503110334 | 40 | 328 | 0.0 | 1.0 | 0.00 | 0.01 | 0.00 | 94 | 1022.1 |
| 20260503110234 | 40 | 328 | 0.0 | 1.0 | 0.00 | 0.01 | 0.00 | 94 | 1022.1 |
| 20260503110157 | 40 | 328 | 0.0 | 1.0 | 0.00 | 0.01 | 0.00 | 94 | 1022.0 |
| 20260503110146 | 40 | 328 | 0.0 | 1.0 | 0.00 | 0.01 | 0.00 | 94 | 1021.9 |
| 20260503100228 | 40 | 328 | 0.0 | 0.0 | 0.00 | 0.01 | 0.00 | 94 | 1021.6 |
| 20260503100126 | 40 | 328 | 0.0 | 0.0 | 0.00 | 0.01 | 0.00 | 94 | 1021.5 |
| 20260503090433 | 41 | 328 | 0.0 | 0.0 | 0.00 | 0.01 | 0.00 | 94 | 1021.2 |
| 20260503090418 | 41 | 328 | 0.0 | 0.0 | 0.00 | 0.01 | 0.00 | 94 | 1021.2 |
| 20260503081621 | 42 | 328 | 0.0 | 0.0 | 0.00 | 0.01 | 0.00 | 94 | 1021.0 |
| 20260503081521 | 42 | 328 | 0.0 | 0.0 | 0.00 | 0.01 | 0.00 | 94 | 1021.1 |
| 20260503081514 | 42 | 328 | 0.0 | 0.0 | 0.00 | 0.01 | 0.00 | 94 | 1021.0 |
| 20260503081459 | 42 | 328 | 0.0 | 0.0 | 0.00 | 0.01 | 0.00 | 94 | 1021.0 |
| 20260503081336 | 42 | 328 | 0.0 | 0.0 | 0.00 | 0.01 | 0.00 | 94 | 1021.0 |
| 20260503081121 | 42 | 328 | 0.0 | 0.0 | 0.00 | 0.01 | 0.00 | 94 | 1021.0 |
| 20260503081023 | 42 | 328 | 0.0 | 0.0 | 0.00 | 0.01 | 0.00 | 94 | 1021.0 |
| 20260503080945 | 41 | 328 | 0.0 | 0.0 | 0.00 | 0.01 | 0.00 | 94 | 1020.9 |
| 20260503080934 | 42 | 328 | 0.0 | 0.0 | 0.00 | 0.01 | 0.00 | 94 | 1020.9 |
| 20260503080715 | 41 | 328 | 0.0 | 0.0 | 0.00 | 0.01 | 0.00 | 94 | 1021.0 |
| 20260503080615 | 41 | 328 | 0.0 | 0.0 | 0.00 | 0.01 | 0.00 | 94 | 1021.0 |
| 20260503080516 | 41 | 328 | 0.0 | 0.0 | 0.00 | 0.01 | 0.00 | 93 | 1020.9 |
| 20260503080439 | 41 | 328 | 0.0 | 0.0 | 0.00 | 0.01 | 0.00 | 93 | 1021.0 |
| 20260503080428 | 41 | 328 | 0.0 | 0.0 | 0.00 | 0.01 | 0.00 | 94 | 1021.0 |
| 20260503080213 | 41 | 328 | 0.0 | 0.0 | 0.00 | 0.01 | 0.00 | 93 | 1021.0 |
| 20260503080114 | 41 | 328 | 0.0 | 0.0 | 0.00 | 0.01 | 0.00 | 93 | 1021.0 |
| 20260503072928 | 42 | 328 | 0.0 | 0.0 | 0.00 | 0.01 | 0.00 | 94 | 1021.1 |
| 20260503072826 | 42 | 328 | 0.0 | 0.0 | 0.00 | 0.01 | 0.00 | 94 | 1021.1 |
| 20260503072720 | 42 | 328 | 0.0 | 0.0 | 0.00 | 0.01 | 0.00 | 94 | 1021.1 |
| 20260503072618 | 42 | 328 | 0.0 | 0.0 | 0.00 | 0.01 | 0.00 | 94 | 1021.1 |
| 20260503072520 | 41 | 328 | 0.0 | 0.0 | 0.00 | 0.01 | 0.00 | 94 | 1021.0 |
| 20260503072419 | 42 | 328 | 0.0 | 0.0 | 0.00 | 0.01 | 0.00 | 94 | 1021.0 |
| 20260503072319 | 41 | 328 | 0.0 | 0.0 | 0.00 | 0.01 | 0.00 | 94 | 1021.1 |
| 20260503072219 | 41 | 328 | 0.0 | 0.0 | 0.00 | 0.01 | 0.00 | 94 | 1021.0 |
| 20260503072120 | 41 | 328 | 0.0 | 0.0 | 0.00 | 0.01 | 0.00 | 94 | 1021.0 |
| 20260503072019 | 41 | 328 | 0.0 | 0.0 | 0.00 | 0.01 | 0.00 | 93 | 1021.0 |
| 20260503071917 | 41 | 328 | 0.0 | 0.0 | 0.00 | 0.01 | 0.00 | 93 | 1021.0 |
| 20260503071817 | 41 | 328 | 0.0 | 0.0 | 0.00 | 0.01 | 0.00 | 93 | 1021.0 |
| 20260503071717 | 41 | 328 | 0.0 | 0.0 | 0.00 | 0.01 | 0.00 | 93 | 1021.0 |
| 20260503071613 | 41 | 328 | 0.0 | 0.0 | 0.00 | 0.01 | 0.00 | 93 | 1021.0 |
| 20260503071514 | 41 | 328 | 0.0 | 0.0 | 0.00 | 0.01 | 0.00 | 93 | 1021.0 |
| 20260503071414 | 41 | 328 | 0.0 | 0.0 | 0.00 | 0.01 | 0.00 | 93 | 1021.0 |
| 20260503071314 | 41 | 328 | 0.0 | 0.0 | 0.00 | 0.01 | 0.00 | 93 | 1021.0 |
| 20260503071214 | 41 | 328 | 0.0 | 0.0 | 0.00 | 0.01 | 0.00 | 93 | 1021.0 |
| 20260503071111 | 41 | 328 | 0.0 | 0.0 | 0.00 | 0.01 | 0.00 | 93 | 1020.9 |
| 20260503071012 | 41 | 328 | 0.0 | 0.0 | 0.00 | 0.01 | 0.00 | 93 | 1020.9 |
| 20260503070909 | 41 | 328 | 0.0 | 0.0 | 0.00 | 0.01 | 0.00 | 93 | 1020.9 |
| 20260503070810 | 41 | 328 | 0.0 | 0.0 | 0.00 | 0.01 | 0.00 | 93 | 1020.9 |
| 20260503070709 | 41 | 328 | 0.0 | 0.0 | 0.00 | 0.01 | 0.00 | 93 | 1020.8 |
| 20260503070607 | 42 | 328 | 0.0 | 0.0 | 0.00 | 0.01 | 0.00 | 93 | 1020.8 |
| 20260503070559 | 42 | 328 | 0.0 | 0.0 | 0.00 | 0.01 | 0.00 | 93 | 1020.9 |
| 20260503070543 | 42 | 328 | 0.0 | 0.0 | 0.00 | 0.01 | 0.00 | 93 | 1020.9 |
| 20260503070422 | 42 | 328 | 0.0 | 0.0 | 0.00 | 0.01 | 0.00 | 93 | 1020.9 |
| 20260503070208 | 42 | 328 | 0.0 | 0.0 | 0.00 | 0.01 | 0.00 | 93 | 1020.9 |
| 20260503070106 | 42 | 328 | 0.0 | 0.0 | 0.00 | 0.01 | 0.00 | 93 | 1020.9 |
| 20260503060253 | 42 | 328 | 0.0 | 0.0 | 0.00 | 0.01 | 0.00 | 93 | 1020.8 |
| 20260503060154 | 42 | 328 | 0.0 | 0.0 | 0.00 | 0.01 | 0.00 | 93 | 1020.8 |
| 20260503055127 | 43 | 328 | 0.0 | 0.0 | 0.00 | 0.01 | 0.00 | 93 | 1020.8 |
| 20260503055113 | 42 | 328 | 0.0 | 0.0 | 0.00 | 0.01 | 0.00 | 93 | 1020.9 |
| 20260503054740 | 43 | 328 | 0.0 | 0.0 | 0.00 | 0.01 | 0.00 | 93 | 1020.8 |
| 20260503054640 | 43 | 328 | 0.0 | 0.0 | 0.00 | 0.01 | 0.00 | 93 | 1020.8 |
| 20260503054538 | 43 | 328 | 0.0 | 0.0 | 0.00 | 0.01 | 0.00 | 93 | 1020.8 |
| 20260503054457 | 43 | 328 | 0.0 | 0.0 | 0.00 | 0.01 | 0.00 | 93 | 1020.8 |
| 20260503054452 | 43 | 328 | 0.0 | 0.0 | 0.00 | 0.01 | 0.00 | 93 | 1020.7 |
| 20260503054442 | 43 | 328 | 0.0 | 0.0 | 0.00 | 0.01 | 0.00 | 93 | 1020.8 |
| 20260503054426 | 43 | 328 | 0.0 | 0.0 | 0.00 | 0.01 | 0.00 | 93 | 1020.8 |
| 20260503054303 | 43 | 328 | 0.0 | 0.0 | 0.00 | 0.01 | 0.00 | 93 | 1020.8 |
| 20260503053929 | 43 | 328 | 0.0 | 0.0 | 0.00 | 0.01 | 0.00 | 93 | 1020.8 |
| 20260503053826 | 43 | 328 | 0.0 | 0.0 | 0.00 | 0.01 | 0.00 | 93 | 1020.8 |
| 20260503053724 | 43 | 328 | 0.0 | 0.0 | 0.00 | 0.01 | 0.00 | 93 | 1020.8 |
| 20260503053623 | 43 | 328 | 0.0 | 0.0 | 0.00 | 0.01 | 0.00 | 93 | 1020.8 |
| 20260503053522 | 43 | 328 | 0.0 | 0.0 | 0.00 | 0.01 | 0.00 | 93 | 1020.8 |
| 20260503053443 | 43 | 328 | 0.0 | 0.0 | 0.00 | 0.01 | 0.00 | 93 | 1020.8 |
| 20260503053432 | 43 | 328 | 0.0 | 0.0 | 0.00 | 0.01 | 0.00 | 93 | 1020.8 |
| 20260503053217 | 43 | 328 | 0.0 | 0.0 | 0.00 | 0.01 | 0.00 | 93 | 1020.8 |
| 20260503053116 | 43 | 328 | 0.0 | 0.0 | 0.00 | 0.01 | 0.00 | 93 | 1020.8 |
| 20260503053016 | 43 | 328 | 0.0 | 0.0 | 0.00 | 0.01 | 0.00 | 93 | 1020.9 |
| 20260503052913 | 43 | 328 | 0.0 | 0.0 | 0.00 | 0.01 | 0.00 | 93 | 1020.8 |
| 20260503052813 | 43 | 328 | 0.0 | 0.0 | 0.00 | 0.01 | 0.00 | 93 | 1020.8 |
| 20260503052710 | 43 | 328 | 0.0 | 0.0 | 0.00 | 0.01 | 0.00 | 93 | 1020.8 |
| 20260503052612 | 43 | 328 | 0.0 | 0.0 | 0.00 | 0.01 | 0.00 | 93 | 1020.8 |
| 20260503052508 | 43 | 328 | 0.0 | 0.0 | 0.00 | 0.01 | 0.00 | 93 | 1020.9 |
| 20260503052407 | 43 | 328 | 0.0 | 0.0 | 0.00 | 0.01 | 0.00 | 93 | 1020.9 |
| 20260503052328 | 43 | 328 | 0.0 | 0.0 | 0.00 | 0.01 | 0.00 | 93 | 1020.8 |
| 20260503052316 | 43 | 328 | 0.0 | 0.0 | 0.00 | 0.01 | 0.00 | 93 | 1020.9 |
| 20260503052128 | 43 | 328 | 0.0 | 0.0 | 0.00 | 0.01 | 0.00 | 93 | 1020.8 |
| 20260503052115 | 43 | 328 | 0.0 | 0.0 | 0.00 | 0.01 | 0.00 | 93 | 1020.8 |
| 20260503051857 | 43 | 328 | 0.0 | 0.0 | 0.00 | 0.01 | 0.00 | 93 | 1020.8 |
| 20260503051753 | 43 | 328 | 0.0 | 0.0 | 0.00 | 0.01 | 0.00 | 93 | 1020.9 |
| 20260503051652 | 43 | 328 | 0.0 | 0.0 | 0.00 | 0.01 | 0.00 | 93 | 1020.8 |
| 20260503051618 | 43 | 328 | 0.0 | 0.0 | 0.00 | 0.01 | 0.00 | 93 | 1020.8 |
| 20260503051607 | 43 | 328 | 0.0 | 0.0 | 0.00 | 0.01 | 0.00 | 93 | 1020.8 |
| 20260503051351 | 43 | 328 | 0.0 | 0.0 | 0.00 | 0.01 | 0.00 | 93 | 1020.8 |
| 20260503051247 | 43 | 328 | 0.0 | 0.0 | 0.00 | 0.01 | 0.00 | 93 | 1020.8 |
| 20260503051145 | 43 | 328 | 0.0 | 0.0 | 0.00 | 0.01 | 0.00 | 93 | 1020.8 |
| 20260503051045 | 43 | 328 | 0.0 | 0.0 | 0.00 | 0.01 | 0.00 | 93 | 1020.8 |
| 20260503050945 | 43 | 328 | 0.0 | 0.0 | 0.00 | 0.01 | 0.00 | 93 | 1020.9 |
| 20260503050845 | 43 | 328 | 0.0 | 0.0 | 0.00 | 0.01 | 0.00 | 93 | 1020.8 |
| 20260503050741 | 43 | 328 | 0.0 | 0.0 | 0.00 | 0.01 | 0.00 | 93 | 1020.9 |
| 20260503050640 | 43 | 328 | 0.0 | 0.0 | 0.00 | 0.01 | 0.00 | 93 | 1020.9 |
| 20260503050539 | 43 | 328 | 0.0 | 0.0 | 0.00 | 0.01 | 0.00 | 93 | 1020.8 |
| 20260503050523 | 43 | 328 | 0.0 | 0.0 | 0.00 | 0.01 | 0.00 | 93 | 1020.9 |
| 20260503050518 | 43 | 328 | 0.0 | 0.0 | 0.00 | 0.01 | 0.00 | 93 | 1020.9 |
| 20260503050505 | 43 | 328 | 0.0 | 0.0 | 0.00 | 0.01 | 0.00 | 93 | 1020.8 |
| 20260503050132 | 43 | 328 | 0.0 | 0.0 | 0.00 | 0.01 | 0.00 | 93 | 1020.9 |
| 20260503050030 | 43 | 328 | 0.0 | 0.0 | 0.00 | 0.01 | 0.00 | 93 | 1020.8 |
| 20260503045930 | 43 | 328 | 0.0 | 0.0 | 0.00 | 0.01 | 0.01 | 93 | 1020.8 |
| 20260503045831 | 43 | 328 | 0.0 | 0.0 | 0.00 | 0.01 | 0.01 | 93 | 1020.8 |
| 20260503045724 | 43 | 328 | 0.0 | 0.0 | 0.00 | 0.01 | 0.01 | 92 | 1020.8 |
| 20260503045625 | 43 | 328 | 0.0 | 0.0 | 0.00 | 0.01 | 0.01 | 93 | 1020.7 |
| 20260503045551 | 43 | 328 | 0.0 | 1.0 | 0.00 | 0.01 | 0.01 | 92 | 1020.7 |
| 20260503045540 | 43 | 328 | 0.0 | 1.0 | 0.00 | 0.01 | 0.01 | 93 | 1020.7 |
| 20260503045346 | 44 | 328 | 0.0 | 1.0 | 0.00 | 0.01 | 0.01 | 92 | 1020.6 |
| 20260503045335 | 43 | 328 | 0.0 | 1.0 | 0.00 | 0.01 | 0.01 | 92 | 1020.7 |
| 20260503045119 | 44 | 328 | 0.0 | 1.0 | 0.00 | 0.01 | 0.01 | 93 | 1020.6 |
| 20260503045019 | 44 | 328 | 0.0 | 1.0 | 0.00 | 0.01 | 0.01 | 93 | 1020.6 |
| 20260503044917 | 44 | 328 | 0.0 | 1.0 | 0.00 | 0.01 | 0.01 | 93 | 1020.6 |
| 20260503044815 | 43 | 328 | 0.0 | 1.0 | 0.00 | 0.01 | 0.01 | 92 | 1020.7 |
| 20260503044716 | 44 | 328 | 0.0 | 1.0 | 0.00 | 0.01 | 0.01 | 92 | 1020.6 |
| 20260503044612 | 44 | 328 | 0.0 | 1.0 | 0.00 | 0.01 | 0.01 | 93 | 1020.6 |
| 20260503044603 | 44 | 328 | 0.0 | 1.0 | 0.00 | 0.01 | 0.01 | 92 | 1020.6 |
| 20260503044548 | 44 | 328 | 0.0 | 1.0 | 0.00 | 0.01 | 0.01 | 92 | 1020.6 |
| 20260503044423 | 44 | 328 | 0.0 | 1.0 | 0.00 | 0.01 | 0.01 | 92 | 1020.6 |
| 20260503044207 | 44 | 328 | 0.0 | 1.0 | 0.00 | 0.01 | 0.01 | 92 | 1020.5 |
| 20260503044107 | 44 | 328 | 0.0 | 1.0 | 0.00 | 0.01 | 0.01 | 92 | 1020.6 |
| 20260503044008 | 44 | 328 | 0.0 | 1.0 | 0.00 | 0.01 | 0.01 | 92 | 1020.6 |
| 20260503043906 | 44 | 328 | 0.0 | 1.0 | 0.00 | 0.01 | 0.01 | 92 | 1020.6 |
| 20260503043803 | 44 | 328 | 0.0 | 1.0 | 0.00 | 0.01 | 0.01 | 92 | 1020.5 |
| 20260503043658 | 44 | 328 | 0.0 | 1.0 | 0.00 | 0.01 | 0.01 | 92 | 1020.5 |
| 20260503043623 | 44 | 328 | 0.0 | 0.0 | 0.00 | 0.01 | 0.01 | 92 | 1020.6 |
| 20260503043612 | 44 | 328 | 0.0 | 1.0 | 0.00 | 0.01 | 0.01 | 92 | 1020.5 |
| 20260503043356 | 44 | 328 | 0.0 | 0.0 | 0.00 | 0.01 | 0.01 | 92 | 1020.5 |
| 20260503043253 | 44 | 328 | 0.0 | 0.0 | 0.00 | 0.01 | 0.01 | 92 | 1020.5 |
| 20260503043151 | 44 | 328 | 0.0 | 0.0 | 0.00 | 0.01 | 0.01 | 92 | 1020.5 |
| 20260503043051 | 44 | 328 | 0.0 | 0.0 | 0.00 | 0.01 | 0.01 | 92 | 1020.5 |
| 20260503042951 | 44 | 328 | 0.0 | 1.0 | 0.00 | 0.01 | 0.01 | 92 | 1020.5 |
| 20260503042848 | 44 | 328 | 0.0 | 1.0 | 0.00 | 0.01 | 0.01 | 92 | 1020.5 |
| 20260503042747 | 44 | 328 | 0.0 | 1.0 | 0.00 | 0.01 | 0.01 | 92 | 1020.5 |
| 20260503042646 | 44 | 328 | 0.0 | 1.0 | 0.00 | 0.01 | 0.01 | 92 | 1020.4 |
| 20260503042544 | 44 | 328 | 0.0 | 1.0 | 0.00 | 0.01 | 0.01 | 92 | 1020.5 |
| 20260503042445 | 44 | 328 | 0.0 | 1.0 | 0.00 | 0.01 | 0.01 | 92 | 1020.5 |
| 20260503042342 | 44 | 328 | 0.0 | 1.0 | 0.00 | 0.01 | 0.01 | 92 | 1020.5 |
| 20260503042306 | 44 | 328 | 0.0 | 1.0 | 0.00 | 0.01 | 0.01 | 92 | 1020.5 |
| 20260503042255 | 44 | 328 | 0.0 | 1.0 | 0.00 | 0.01 | 0.01 | 92 | 1020.6 |
| 20260503042038 | 44 | 328 | 0.0 | 1.0 | 0.00 | 0.01 | 0.01 | 92 | 1020.5 |
| 20260503041938 | 44 | 328 | 0.0 | 1.0 | 0.00 | 0.01 | 0.01 | 92 | 1020.4 |
| 20260503041838 | 44 | 328 | 0.0 | 1.0 | 0.00 | 0.01 | 0.01 | 92 | 1020.5 |
| 20260503041734 | 44 | 328 | 0.0 | 1.0 | 0.00 | 0.01 | 0.01 | 92 | 1020.4 |
| 20260503041634 | 44 | 328 | 0.0 | 1.0 | 0.00 | 0.01 | 0.01 | 92 | 1020.5 |
| 20260503041558 | 44 | 328 | 0.0 | 1.0 | 0.00 | 0.01 | 0.01 | 92 | 1020.4 |
| 20260503041548 | 44 | 328 | 0.0 | 1.0 | 0.00 | 0.01 | 0.01 | 92 | 1020.4 |
| 20260503041330 | 44 | 328 | 0.0 | 1.0 | 0.00 | 0.01 | 0.01 | 92 | 1020.4 |
| 20260503041228 | 44 | 328 | 0.0 | 1.0 | 0.00 | 0.01 | 0.01 | 92 | 1020.4 |
| 20260503041129 | 44 | 328 | 0.0 | 1.0 | 0.00 | 0.01 | 0.01 | 92 | 1020.3 |
| 20260503041027 | 44 | 328 | 0.0 | 0.0 | 0.00 | 0.01 | 0.01 | 92 | 1020.3 |
| 20260503040924 | 44 | 328 | 0.0 | 0.0 | 0.00 | 0.01 | 0.01 | 92 | 1020.3 |
| 20260503040825 | 44 | 328 | 0.0 | 0.0 | 0.00 | 0.01 | 0.01 | 92 | 1020.4 |
| 20260503040725 | 44 | 328 | 0.0 | 0.0 | 0.00 | 0.01 | 0.01 | 92 | 1020.4 |
| 20260503040626 | 44 | 328 | 0.0 | 0.0 | 0.00 | 0.01 | 0.01 | 92 | 1020.3 |
| 20260503040524 | 44 | 328 | 0.0 | 0.0 | 0.00 | 0.01 | 0.01 | 92 | 1020.3 |
| 20260503040424 | 44 | 328 | 0.0 | 0.0 | 0.00 | 0.01 | 0.01 | 92 | 1020.3 |
| 20260503040348 | 44 | 328 | 0.0 | 1.0 | 0.00 | 0.01 | 0.01 | 92 | 1020.3 |
| 20260503040337 | 44 | 328 | 0.0 | 1.0 | 0.00 | 0.01 | 0.01 | 92 | 1020.3 |
| 20260503040121 | 44 | 328 | 0.0 | 1.0 | 0.00 | 0.01 | 0.01 | 92 | 1020.3 |
| 20260503040018 | 44 | 328 | 0.0 | 1.0 | 0.00 | 0.01 | 0.01 | 92 | 1020.2 |
| 20260503035942 | 44 | 328 | 0.0 | 1.0 | 0.00 | 0.01 | 0.01 | 92 | 1020.2 |
| 20260503035930 | 44 | 328 | 0.0 | 1.0 | 0.00 | 0.01 | 0.01 | 92 | 1020.3 |
| 20260503035717 | 44 | 328 | 0.0 | 1.0 | 0.00 | 0.01 | 0.01 | 92 | 1020.3 |
| 20260503035616 | 44 | 328 | 0.0 | 1.0 | 0.00 | 0.01 | 0.01 | 91 | 1020.3 |
| 20260503035538 | 44 | 328 | 0.0 | 1.0 | 0.00 | 0.01 | 0.01 | 91 | 1020.1 |
| 20260503035528 | 44 | 328 | 0.0 | 1.0 | 0.00 | 0.01 | 0.01 | 91 | 1020.2 |
| 20260503035310 | 44 | 328 | 0.0 | 1.0 | 0.00 | 0.01 | 0.01 | 91 | 1020.2 |
| 20260503035255 | 44 | 328 | 0.0 | 1.0 | 0.00 | 0.01 | 0.01 | 91 | 1020.2 |
| 20260503035251 | 44 | 328 | 0.0 | 2.0 | 0.00 | 0.01 | 0.01 | 91 | 1020.2 |
| 20260503035237 | 44 | 328 | 0.0 | 1.0 | 0.00 | 0.01 | 0.01 | 91 | 1020.2 |
| 20260503034906 | 44 | 328 | 0.0 | 2.0 | 0.00 | 0.01 | 0.01 | 91 | 1020.1 |
| 20260503034805 | 44 | 328 | 0.0 | 2.0 | 0.00 | 0.01 | 0.01 | 91 | 1020.2 |
| 20260503034704 | 44 | 328 | 0.0 | 2.0 | 0.00 | 0.01 | 0.01 | 91 | 1020.1 |
| 20260503034631 | 45 | 328 | 0.0 | 2.0 | 0.00 | 0.01 | 0.01 | 91 | 1020.2 |
| 20260503034619 | 45 | 328 | 0.0 | 2.0 | 0.00 | 0.01 | 0.01 | 91 | 1020.2 |
| 20260503034405 | 45 | 328 | 0.0 | 2.0 | 0.00 | 0.01 | 0.01 | 91 | 1020.1 |
| 20260503034302 | 45 | 328 | 0.0 | 2.0 | 0.00 | 0.01 | 0.01 | 91 | 1020.2 |
| 20260503034203 | 45 | 328 | 0.0 | 2.0 | 0.00 | 0.01 | 0.01 | 91 | 1020.2 |
| 20260503034101 | 45 | 328 | 0.0 | 2.0 | 0.00 | 0.01 | 0.01 | 91 | 1020.2 |
| 20260503033959 | 45 | 328 | 0.0 | 2.0 | 0.00 | 0.01 | 0.01 | 91 | 1020.3 |
| 20260503033922 | 45 | 328 | 0.0 | 3.0 | 0.00 | 0.01 | 0.01 | 91 | 1020.3 |
| 20260503033911 | 45 | 328 | 0.0 | 3.0 | 0.00 | 0.01 | 0.01 | 91 | 1020.3 |
| 20260503033657 | 45 | 325 | 0.0 | 3.0 | 0.00 | 0.01 | 0.01 | 91 | 1020.3 |
| 20260503033554 | 45 | 325 | 0.0 | 3.0 | 0.00 | 0.01 | 0.01 | 91 | 1020.2 |
| 20260503033453 | 45 | 325 | 0.0 | 3.0 | 0.00 | 0.01 | 0.01 | 91 | 1020.2 |
| 20260503033352 | 45 | 325 | 0.0 | 3.0 | 0.00 | 0.01 | 0.01 | 91 | 1020.2 |
| 20260503033251 | 45 | 325 | 0.0 | 3.0 | 0.00 | 0.01 | 0.01 | 91 | 1020.2 |
| 20260503033148 | 45 | 324 | 0.0 | 3.0 | 0.00 | 0.01 | 0.01 | 91 | 1020.3 |
| 20260503033049 | 45 | 324 | 0.0 | 3.0 | 0.00 | 0.01 | 0.01 | 91 | 1020.2 |
| 20260503033036 | 45 | 349 | 0.0 | 3.0 | 0.00 | 0.01 | 0.01 | 91 | 1020.3 |
| 20260503033032 | 45 | 335 | 0.0 | 2.0 | 0.00 | 0.01 | 0.01 | 91 | 1020.3 |
| 20260503033017 | 45 | 346 | 0.0 | 3.0 | 0.00 | 0.01 | 0.01 | 91 | 1020.3 |
| 20260503032645 | 45 | 335 | 0.0 | 2.0 | 0.00 | 0.01 | 0.01 | 91 | 1020.3 |
| 20260503032542 | 45 | 333 | 0.0 | 2.0 | 0.00 | 0.01 | 0.01 | 91 | 1020.3 |
| 20260503032443 | 45 | 333 | 0.0 | 2.0 | 0.00 | 0.01 | 0.01 | 91 | 1020.3 |
| 20260503032341 | 45 | 333 | 0.0 | 2.0 | 0.00 | 0.01 | 0.01 | 91 | 1020.3 |
| 20260503032239 | 45 | 333 | 0.0 | 2.0 | 0.00 | 0.01 | 0.01 | 91 | 1020.2 |
| 20260503032139 | 45 | 333 | 0.0 | 2.0 | 0.00 | 0.01 | 0.01 | 91 | 1020.2 |
| 20260503032036 | 45 | 333 | 0.0 | 2.0 | 0.00 | 0.01 | 0.01 | 91 | 1020.2 |
| 20260503031937 | 45 | 333 | 0.0 | 2.0 | 0.00 | 0.01 | 0.01 | 91 | 1020.2 |
| 20260503031835 | 46 | 333 | 0.0 | 2.0 | 0.00 | 0.01 | 0.01 | 90 | 1020.1 |
| 20260503031733 | 46 | 338 | 0.0 | 2.0 | 0.00 | 0.01 | 0.01 | 90 | 1020.2 |
| 20260503031630 | 46 | 338 | 0.0 | 2.0 | 0.00 | 0.01 | 0.01 | 91 | 1020.2 |
| 20260503031529 | 46 | 338 | 0.0 | 2.0 | 0.00 | 0.01 | 0.01 | 91 | 1020.2 |
| 20260503031428 | 46 | 338 | 0.0 | 3.0 | 0.00 | 0.01 | 0.01 | 91 | 1020.3 |
| 20260503031329 | 46 | 338 | 0.0 | 3.0 | 0.00 | 0.01 | 0.01 | 90 | 1020.2 |
| 20260503031254 | 46 | 335 | 0.0 | 3.0 | 0.00 | 0.01 | 0.01 | 90 | 1020.2 |
| 20260503031244 | 46 | 336 | 0.0 | 3.0 | 0.00 | 0.01 | 0.01 | 90 | 1020.2 |
| 20260503031029 | 46 | 340 | 0.0 | 3.0 | 0.00 | 0.01 | 0.01 | 90 | 1020.2 |
| 20260503030927 | 46 | 341 | 0.0 | 3.0 | 0.00 | 0.01 | 0.01 | 90 | 1020.2 |
| 20260503030827 | 46 | 342 | 0.0 | 3.0 | 0.00 | 0.01 | 0.01 | 90 | 1020.2 |
| 20260503030724 | 46 | 343 | 0.0 | 3.0 | 0.00 | 0.01 | 0.01 | 90 | 1020.2 |
| 20260503030624 | 46 | 345 | 0.0 | 3.0 | 0.00 | 0.01 | 0.01 | 90 | 1020.3 |
| 20260503030525 | 46 | 344 | 0.0 | 3.0 | 0.00 | 0.01 | 0.01 | 90 | 1020.3 |
| 20260503030424 | 46 | 336 | 0.0 | 2.0 | 0.00 | 0.01 | 0.01 | 91 | 1020.2 |
| 20260503030325 | 46 | 332 | 0.0 | 2.0 | 0.00 | 0.01 | 0.01 | 90 | 1020.2 |
| 20260503030224 | 46 | 332 | 0.0 | 2.0 | 0.00 | 0.01 | 0.01 | 90 | 1020.2 |
| 20260503030124 | 46 | 332 | 0.0 | 2.0 | 0.00 | 0.01 | 0.01 | 91 | 1020.3 |
| 20260503030025 | 46 | 332 | 0.0 | 2.0 | 0.00 | 0.01 | 0.01 | 90 | 1020.2 |
| 20260503025922 | 46 | 332 | 0.0 | 2.0 | 0.00 | 0.01 | 0.01 | 90 | 1020.2 |